GFSNIL_prec_precacc_027.txt.gz
Total_Precipitation_Accumulation
0.03 0.03 0.03 0.03 0.03 0.03 0.01 0.00 0.00 0.00 0.00 0.00 0.00 0.00 0.00 0.00 0.00 0.00 0.00 0.00 0.00 0.00
0.02 0.02 0.01 0.02 0.02 0.02 0.01 0.00 0.00 0.01 0.00 0.00 0.00 0.00 0.00 0.00 0.00 0.00 0.00 0.00 0.00 0.00
0.02 0.02 0.02 0.01 0.01 0.02 0.02 0.01 0.01 0.01 0.00 0.00 0.00 0.00 0.00 0.00 0.00 0.00 0.00 0.00 0.00 0.00
0.02 0.02 0.03 0.02 0.01 0.01 0.02 0.02 0.03 0.03 0.00 0.00 0.00 0.00 0.00 0.00 0.00 0.00 0.00 0.00 0.00 0.00
0.01 0.01 0.03 0.02 0.02 0.01 0.03 0.02 0.02 0.01 0.00 0.00 0.00 0.00 0.00 0.00 0.00 0.00 0.00 0.00 0.00 0.00
0.01 0.01 0.02 0.03 0.03 0.03 0.02 0.02 0.01 0.00 0.00 0.00 0.00 0.00 0.00 0.00 0.00 0.00 0.00 0.00 0.00 0.00
0.02 0.01 0.02 0.02 0.03 0.04 0.02 0.01 0.00 0.00 0.00 0.00 0.00 0.00 0.00 0.00 0.00 0.00 0.00 0.00 0.00 0.00
0.02 0.02 0.02 0.02 0.03 0.03 0.02 0.00 0.00 0.00 0.00 0.00 0.00 0.00 0.00 0.00 0.00 0.00 0.00 0.00 0.00 0.00
0.02 0.03 0.03 0.04 0.03 0.01 0.01 0.00 0.00 0.00 0.00 0.00 0.00 0.00 0.00 0.00 0.00 0.00 0.00 0.00 0.00 0.00
0.03 0.06 0.08 0.06 0.06 0.09 0.07 0.03 0.01 0.00 0.00 0.00 0.00 0.00 0.00 0.00 0.00 0.00 0.00 0.00 0.00 0.00
0.23 0.28 0.26 0.24 0.27 0.24 0.22 0.09 0.02 0.00 0.00 0.00 0.00 0.00 0.00 0.00 0.00 0.00 0.00 0.00 0.00 0.00
0.36 0.44 0.43 0.32 0.26 0.17 0.04 0.00 0.00 0.00 0.00 0.00 0.00 0.00 0.00 0.00 0.00 0.00 0.00 0.00 0.00 0.01
0.54 0.47 0.27 0.14 0.03 0.00 0.00 0.00 0.00 0.00 0.00 0.00 0.00 0.00 0.00 0.00 0.00 0.00 0.00 0.00 0.00 0.00
0.19 0.11 0.02 0.00 0.00 0.00 0.00 0.00 0.00 0.00 0.00 0.00 0.00 0.00 0.00 0.00 0.00 0.00 0.01 0.00 0.00 0.00

GFSNIL_prec_precacc_030.txt.gz
Total_Precipitation_Accumulation
0.03 0.04 0.04 0.04 0.05 0.05 0.04 0.03 0.03 0.02 0.01 0.01 0.00 0.00 0.00 0.00 0.00 0.00 0.00 0.00 0.00 0.00
0.03 0.04 0.03 0.03 0.04 0.04 0.03 0.03 0.02 0.02 0.01 0.01 0.00 0.00 0.00 0.00 0.00 0.00 0.00 0.00 0.00 0.00
0.05 0.05 0.05 0.04 0.04 0.03 0.03 0.03 0.03 0.01 0.01 0.01 0.00 0.00 0.00 0.00 0.00 0.00 0.00 0.00 0.00 0.00
0.05 0.06 0.06 0.05 0.03 0.02 0.02 0.03 0.04 0.04 0.04 0.04 0.01 0.00 0.00 0.00 0.00 0.00 0.00 0.00 0.00 0.00
0.03 0.04 0.06 0.05 0.04 0.02 0.03 0.03 0.03 0.05 0.10 0.12 0.07 0.01 0.00 0.00 0.00 0.00 0.00 0.00 0.00 0.00
0.03 0.04 0.04 0.04 0.04 0.03 0.03 0.04 0.04 0.02 0.02 0.04 0.05 0.02 0.00 0.00 0.00 0.00 0.00 0.00 0.00 0.00
0.04 0.03 0.03 0.03 0.03 0.04 0.03 0.02 0.02 0.02 0.05 0.05 0.01 0.01 0.00 0.00 0.00 0.00 0.00 0.00 0.00 0.00
0.05 0.03 0.02 0.03 0.04 0.04 0.02 0.07 0.07 0.03 0.02 0.01 0.01 0.01 0.00 0.00 0.00 0.00 0.00 0.00 0.00 0.00
0.04 0.05 0.03 0.04 0.04 0.03 0.03 0.06 0.12 0.15 0.07 0.01 0.00 0.00 0.00 0.00 0.00 0.00 0.00 0.00 0.00 0.00
0.10 0.07 0.09 0.09 0.09 0.12 0.11 0.08 0.12 0.11 0.07 0.03 0.03 0.03 0.01 0.00 0.00 0.00 0.00 0.00 0.00 0.00
0.25 0.30 0.33 0.42 0.40 0.39 0.44 0.48 0.42 0.32 0.21 0.10 0.04 0.01 0.00 0.00 0.00 0.00 0.00 0.00 0.00 0.00
0.39 0.52 0.57 0.65 0.67 0.56 0.37 0.25 0.16 0.08 0.03 0.01 0.00 0.00 0.00 0.00 0.00 0.00 0.00 0.00 0.00 0.01
0.74 0.67 0.60 0.47 0.38 0.20 0.08 0.02 0.01 0.00 0.00 0.00 0.00 0.00 0.00 0.00 0.00 0.00 0.00 0.00 0.00 0.00
0.46 0.34 0.28 0.19 0.05 0.02 0.01 0.00 0.00 0.00 0.00 0.00 0.00 0.00 0.00 0.00 0.00 0.00 0.01 0.00 0.00 0.00

GFSNIL_prec_precacc_033.txt.gz
Total_Precipitation_Accumulation
0.03 0.04 0.04 0.04 0.05 0.06 0.05 0.05 0.05 0.04 0.04 0.03 0.02 0.02 0.01 0.00 0.00 0.00 0.00 0.00 0.00 0.00
0.03 0.04 0.03 0.03 0.05 0.05 0.05 0.06 0.05 0.04 0.04 0.03 0.02 0.02 0.01 0.01 0.00 0.00 0.00 0.00 0.00 0.00
0.05 0.05 0.05 0.04 0.05 0.04 0.04 0.05 0.05 0.03 0.02 0.02 0.01 0.01 0.00 0.00 0.00 0.00 0.00 0.00 0.00 0.00
0.05 0.06 0.07 0.06 0.05 0.05 0.06 0.06 0.06 0.04 0.04 0.04 0.02 0.01 0.01 0.00 0.00 0.00 0.00 0.00 0.00 0.00
0.03 0.05 0.07 0.07 0.07 0.05 0.06 0.05 0.05 0.06 0.10 0.12 0.07 0.04 0.04 0.04 0.03 0.01 0.01 0.01 0.00 0.00
0.04 0.05 0.06 0.07 0.09 0.07 0.06 0.05 0.05 0.03 0.03 0.05 0.09 0.13 0.13 0.10 0.07 0.02 0.00 0.00 0.00 0.00
0.07 0.05 0.04 0.05 0.05 0.06 0.04 0.03 0.02 0.02 0.05 0.09 0.10 0.08 0.07 0.06 0.05 0.01 0.00 0.00 0.00 0.00
0.11 0.07 0.04 0.03 0.04 0.04 0.03 0.07 0.07 0.03 0.03 0.03 0.06 0.09 0.10 0.10 0.05 0.01 0.01 0.01 0.00 0.00
0.08 0.08 0.06 0.06 0.05 0.03 0.03 0.06 0.13 0.17 0.11 0.06 0.04 0.03 0.02 0.01 0.01 0.01 0.02 0.02 0.00 0.00
0.17 0.11 0.21 0.16 0.14 0.15 0.13 0.10 0.14 0.16 0.19 0.20 0.20 0.18 0.15 0.09 0.06 0.03 0.01 0.00 0.00 0.00
0.43 0.37 0.45 0.58 0.46 0.43 0.51 0.56 0.55 0.49 0.44 0.42 0.39 0.31 0.18 0.07 0.03 0.01 0.00 0.00 0.00 0.00
0.68 0.61 0.65 0.71 0.85 0.79 0.59 0.54 0.44 0.37 0.33 0.21 0.10 0.05 0.02 0.01 0.00 0.00 0.00 0.00 0.00 0.01
0.84 0.74 0.79 0.61 0.53 0.48 0.31 0.18 0.13 0.07 0.03 0.01 0.00 0.00 0.00 0.00 0.00 0.00 0.00 0.00 0.00 0.00
0.56 0.48 0.39 0.32 0.17 0.10 0.05 0.02 0.01 0.01 0.00 0.00 0.00 0.00 0.00 0.00 0.00 0.00 0.01 0.00 0.00 0.00

GFSNIL_prec_precacc_036.txt.gz
Total_Precipitation_Accumulation
0.03 0.04 0.04 0.04 0.05 0.06 0.06 0.07 0.07 0.07 0.07 0.06 0.05 0.04 0.03 0.02 0.02 0.01 0.00 0.00 0.00 0.00
0.03 0.04 0.03 0.03 0.05 0.05 0.05 0.07 0.10 0.09 0.09 0.08 0.05 0.04 0.02 0.02 0.01 0.01 0.01 0.01 0.02 0.02
0.05 0.05 0.05 0.04 0.05 0.04 0.04 0.06 0.07 0.07 0.07 0.06 0.05 0.03 0.01 0.01 0.01 0.00 0.00 0.01 0.01 0.00
0.05 0.06 0.07 0.06 0.05 0.05 0.06 0.06 0.08 0.07 0.07 0.06 0.03 0.02 0.01 0.00 0.00 0.00 0.00 0.01 0.00 0.00
0.03 0.05 0.07 0.07 0.07 0.05 0.06 0.06 0.06 0.09 0.12 0.13 0.08 0.04 0.04 0.04 0.03 0.03 0.03 0.04 0.04 0.04
0.04 0.05 0.06 0.07 0.09 0.07 0.06 0.06 0.06 0.04 0.04 0.07 0.10 0.13 0.14 0.11 0.08 0.08 0.07 0.07 0.06 0.04
0.07 0.06 0.05 0.05 0.05 0.07 0.06 0.05 0.03 0.03 0.06 0.10 0.11 0.10 0.10 0.10 0.11 0.10 0.10 0.09 0.07 0.04
0.11 0.08 0.04 0.04 0.05 0.05 0.04 0.08 0.09 0.05 0.04 0.04 0.06 0.11 0.14 0.15 0.14 0.10 0.10 0.09 0.08 0.07
0.08 0.09 0.06 0.06 0.06 0.04 0.04 0.07 0.14 0.18 0.11 0.06 0.05 0.10 0.07 0.04 0.05 0.09 0.11 0.11 0.08 0.06
0.17 0.12 0.23 0.17 0.16 0.18 0.17 0.12 0.16 0.17 0.19 0.22 0.24 0.33 0.31 0.30 0.28 0.26 0.20 0.13 0.09 0.05
0.43 0.38 0.47 0.67 0.56 0.59 0.62 0.64 0.60 0.52 0.49 0.51 0.54 0.52 0.41 0.26 0.17 0.13 0.10 0.07 0.04 0.01
0.72 0.69 0.69 0.79 0.96 0.93 0.67 0.60 0.53 0.45 0.43 0.36 0.28 0.19 0.11 0.07 0.04 0.02 0.01 0.00 0.00 0.01
0.95 0.87 0.99 0.76 0.61 0.59 0.49 0.29 0.26 0.28 0.22 0.13 0.07 0.04 0.02 0.01 0.00 0.00 0.00 0.00 0.00 0.00
0.61 0.53 0.48 0.49 0.33 0.27 0.23 0.17 0.10 0.05 0.03 0.01 0.00 0.00 0.00 0.00 0.00 0.00 0.01 0.00 0.00 0.00

GFSNIL_prec_precacc_039.txt.gz
Total_Precipitation_Accumulation
0.03 0.04 0.04 0.04 0.05 0.06 0.06 0.07 0.07 0.10 0.11 0.10 0.10 0.10 0.08 0.06 0.04 0.04 0.02 0.01 0.01 0.01
0.03 0.04 0.03 0.03 0.05 0.05 0.05 0.07 0.10 0.10 0.11 0.11 0.11 0.11 0.09 0.08 0.05 0.03 0.01 0.02 0.03 0.03
0.05 0.05 0.05 0.04 0.05 0.04 0.04 0.06 0.07 0.07 0.07 0.07 0.08 0.08 0.08 0.07 0.05 0.02 0.01 0.01 0.01 0.01
0.05 0.06 0.07 0.06 0.05 0.05 0.06 0.06 0.08 0.07 0.07 0.06 0.04 0.03 0.03 0.03 0.03 0.03 0.02 0.01 0.02 0.02
0.03 0.05 0.07 0.07 0.07 0.05 0.06 0.06 0.06 0.09 0.12 0.13 0.09 0.05 0.05 0.05 0.04 0.05 0.08 0.07 0.07 0.07
0.04 0.05 0.06 0.07 0.09 0.07 0.06 0.06 0.06 0.04 0.04 0.07 0.10 0.14 0.14 0.11 0.09 0.08 0.08 0.09 0.10 0.08
0.07 0.06 0.05 0.05 0.06 0.08 0.06 0.05 0.04 0.03 0.06 0.10 0.11 0.10 0.10 0.11 0.12 0.13 0.13 0.12 0.12 0.13
0.11 0.08 0.04 0.04 0.06 0.06 0.05 0.09 0.10 0.07 0.06 0.05 0.06 0.12 0.15 0.16 0.17 0.17 0.20 0.21 0.24 0.29
0.08 0.09 0.07 0.07 0.09 0.07 0.05 0.08 0.17 0.25 0.17 0.12 0.09 0.14 0.09 0.06 0.07 0.12 0.17 0.21 0.22 0.17
0.17 0.12 0.23 0.18 0.19 0.21 0.21 0.14 0.18 0.25 0.33 0.30 0.32 0.40 0.36 0.33 0.32 0.32 0.28 0.22 0.17 0.13
0.44 0.38 0.48 0.68 0.57 0.60 0.65 0.72 0.63 0.56 0.54 0.54 0.58 0.57 0.46 0.31 0.24 0.19 0.17 0.14 0.10 0.05
0.74 0.69 0.69 0.79 0.99 1.00 0.71 0.68 0.67 0.60 0.53 0.43 0.36 0.26 0.16 0.11 0.10 0.10 0.06 0.03 0.00 0.01
0.98 0.92 1.08 0.83 0.68 0.72 0.62 0.39 0.36 0.37 0.30 0.22 0.17 0.12 0.08 0.05 0.03 0.01 0.00 0.00 0.00 0.00
0.66 0.61 0.63 0.67 0.51 0.43 0.38 0.33 0.27 0.17 0.10 0.05 0.03 0.01 0.00 0.00 0.00 0.00 0.01 0.00 0.00 0.00

GFSNIL_prec_precacc_042.txt.gz
Total_Precipitation_Accumulation
0.03 0.04 0.04 0.04 0.05 0.06 0.06 0.07 0.07 0.11 0.13 0.13 0.13 0.13 0.14 0.13 0.12 0.12 0.08 0.05 0.03 0.03
0.03 0.04 0.03 0.03 0.05 0.05 0.05 0.07 0.10 0.10 0.11 0.12 0.13 0.13 0.13 0.13 0.12 0.12 0.09 0.07 0.06 0.05
0.05 0.05 0.05 0.04 0.05 0.04 0.04 0.06 0.07 0.07 0.07 0.07 0.08 0.09 0.10 0.09 0.09 0.09 0.08 0.07 0.04 0.02
0.05 0.06 0.07 0.06 0.05 0.05 0.06 0.06 0.08 0.07 0.07 0.06 0.04 0.03 0.03 0.04 0.05 0.05 0.07 0.09 0.10 0.11
0.03 0.05 0.07 0.07 0.07 0.05 0.06 0.06 0.06 0.09 0.12 0.13 0.09 0.05 0.05 0.05 0.04 0.05 0.09 0.12 0.16 0.18
0.04 0.05 0.06 0.07 0.09 0.07 0.06 0.07 0.07 0.05 0.06 0.07 0.11 0.14 0.14 0.11 0.09 0.08 0.09 0.10 0.11 0.10
0.07 0.06 0.05 0.05 0.06 0.08 0.08 0.07 0.05 0.05 0.08 0.11 0.11 0.10 0.10 0.11 0.12 0.13 0.14 0.14 0.15 0.17
0.11 0.08 0.04 0.04 0.06 0.06 0.06 0.11 0.12 0.08 0.06 0.05 0.07 0.12 0.15 0.16 0.18 0.18 0.22 0.24 0.29 0.34
0.08 0.09 0.07 0.08 0.09 0.07 0.06 0.09 0.19 0.27 0.19 0.14 0.11 0.18 0.11 0.07 0.08 0.14 0.20 0.27 0.29 0.23
0.17 0.12 0.23 0.18 0.19 0.22 0.22 0.17 0.21 0.28 0.38 0.39 0.39 0.50 0.47 0.43 0.38 0.35 0.33 0.27 0.22 0.16
0.44 0.38 0.48 0.68 0.58 0.61 0.67 0.81 0.71 0.65 0.63 0.71 0.74 0.68 0.54 0.39 0.29 0.23 0.20 0.16 0.11 0.06
0.75 0.70 0.69 0.80 1.02 1.12 0.83 0.81 0.80 0.67 0.63 0.49 0.44 0.34 0.23 0.16 0.14 0.12 0.08 0.04 0.01 0.01
0.99 0.92 1.10 0.86 0.72 0.87 0.77 0.50 0.48 0.52 0.46 0.34 0.25 0.15 0.09 0.06 0.04 0.01 0.00 0.00 0.00 0.00
0.66 0.62 0.65 0.71 0.57 0.50 0.49 0.45 0.40 0.27 0.16 0.08 0.03 0.01 0.00 0.00 0.00 0.00 0.01 0.00 0.00 0.00

GFSNIL_prec_precacc_045.txt.gz
Total_Precipitation_Accumulation
0.03 0.04 0.04 0.04 0.05 0.06 0.06 0.07 0.08 0.11 0.13 0.13 0.14 0.15 0.15 0.14 0.14 0.15 0.13 0.11 0.10 0.11
0.03 0.04 0.03 0.03 0.05 0.05 0.05 0.07 0.10 0.10 0.11 0.12 0.13 0.15 0.16 0.15 0.16 0.15 0.13 0.14 0.13 0.10
0.05 0.05 0.05 0.04 0.05 0.04 0.04 0.06 0.07 0.07 0.07 0.07 0.08 0.10 0.11 0.12 0.13 0.14 0.12 0.10 0.09 0.07
0.05 0.06 0.07 0.06 0.05 0.05 0.06 0.06 0.08 0.07 0.07 0.06 0.05 0.04 0.05 0.07 0.08 0.10 0.12 0.13 0.14 0.15
0.03 0.05 0.07 0.07 0.07 0.05 0.06 0.06 0.06 0.09 0.13 0.15 0.11 0.07 0.07 0.07 0.06 0.07 0.11 0.14 0.17 0.19
0.04 0.05 0.06 0.07 0.09 0.07 0.06 0.07 0.08 0.06 0.07 0.10 0.14 0.17 0.16 0.14 0.11 0.09 0.10 0.10 0.11 0.11
0.07 0.06 0.05 0.05 0.06 0.08 0.08 0.07 0.05 0.06 0.09 0.12 0.13 0.12 0.11 0.13 0.13 0.14 0.14 0.14 0.16 0.19
0.11 0.08 0.04 0.04 0.06 0.06 0.06 0.11 0.12 0.09 0.07 0.06 0.07 0.13 0.16 0.18 0.18 0.19 0.22 0.25 0.30 0.36
0.08 0.09 0.07 0.08 0.09 0.07 0.06 0.09 0.19 0.27 0.19 0.15 0.12 0.21 0.13 0.08 0.09 0.15 0.21 0.28 0.30 0.29
0.17 0.12 0.23 0.18 0.19 0.22 0.22 0.17 0.21 0.28 0.39 0.42 0.47 0.59 0.51 0.49 0.43 0.38 0.35 0.29 0.23 0.18
0.44 0.38 0.48 0.68 0.58 0.61 0.68 0.85 0.92 0.74 0.76 0.86 0.86 0.79 0.64 0.46 0.39 0.34 0.26 0.19 0.13 0.06
0.75 0.70 0.69 0.80 1.02 1.12 0.86 0.83 0.84 0.74 0.76 0.62 0.53 0.41 0.29 0.22 0.18 0.17 0.11 0.05 0.01 0.01
0.99 0.92 1.10 0.86 0.72 0.87 0.78 0.51 0.50 0.56 0.53 0.39 0.30 0.21 0.13 0.08 0.05 0.02 0.00 0.00 0.00 0.00
0.66 0.62 0.65 0.71 0.57 0.50 0.49 0.46 0.40 0.28 0.17 0.10 0.04 0.01 0.00 0.00 0.00 0.00 0.01 0.00 0.00 0.00

GFSNIL_prec_precacc_048.txt.gz
Total_Precipitation_Accumulation
0.03 0.04 0.04 0.04 0.05 0.06 0.06 0.07 0.08 0.13 0.14 0.15 0.16 0.17 0.17 0.17 0.19 0.19 0.17 0.16 0.16 0.15
0.03 0.04 0.03 0.03 0.05 0.05 0.05 0.07 0.10 0.11 0.12 0.13 0.14 0.16 0.18 0.18 0.19 0.22 0.23 0.23 0.23 0.17
0.05 0.05 0.05 0.04 0.05 0.04 0.04 0.06 0.07 0.07 0.07 0.07 0.09 0.11 0.13 0.15 0.16 0.19 0.19 0.19 0.19 0.16
0.05 0.06 0.07 0.06 0.05 0.05 0.06 0.06 0.08 0.07 0.07 0.06 0.05 0.04 0.05 0.08 0.10 0.14 0.16 0.19 0.22 0.22
0.03 0.05 0.07 0.07 0.07 0.05 0.06 0.06 0.06 0.09 0.13 0.15 0.11 0.07 0.07 0.07 0.07 0.09 0.13 0.17 0.22 0.24
0.04 0.05 0.06 0.07 0.09 0.07 0.06 0.07 0.08 0.06 0.07 0.10 0.14 0.17 0.16 0.14 0.11 0.10 0.12 0.13 0.15 0.15
0.07 0.06 0.05 0.05 0.06 0.08 0.08 0.07 0.05 0.06 0.09 0.12 0.13 0.12 0.11 0.13 0.14 0.16 0.16 0.16 0.19 0.22
0.11 0.08 0.04 0.04 0.06 0.06 0.06 0.11 0.12 0.09 0.07 0.06 0.07 0.13 0.16 0.18 0.19 0.20 0.24 0.28 0.33 0.39
0.08 0.09 0.07 0.08 0.09 0.07 0.06 0.09 0.19 0.27 0.20 0.15 0.13 0.21 0.13 0.08 0.09 0.16 0.23 0.30 0.34 0.34
0.17 0.12 0.23 0.18 0.19 0.22 0.22 0.17 0.21 0.28 0.39 0.42 0.48 0.62 0.54 0.51 0.52 0.49 0.43 0.36 0.30 0.26
0.44 0.38 0.48 0.68 0.58 0.61 0.68 0.85 0.92 0.74 0.76 0.88 0.94 0.85 0.69 0.55 0.48 0.49 0.42 0.31 0.20 0.10
0.75 0.70 0.69 0.80 1.03 1.12 0.86 0.83 0.84 0.74 0.76 0.63 0.54 0.43 0.30 0.23 0.21 0.19 0.14 0.07 0.02 0.01
0.99 0.93 1.10 0.86 0.72 0.87 0.78 0.51 0.50 0.56 0.53 0.39 0.30 0.21 0.13 0.08 0.05 0.02 0.00 0.00 0.00 0.00
0.66 0.62 0.65 0.71 0.57 0.50 0.49 0.46 0.40 0.28 0.17 0.10 0.04 0.01 0.00 0.00 0.00 0.00 0.01 0.00 0.00 0.00

GFSNIL_prec_precacc_051.txt.gz
Total_Precipitation_Accumulation
0.03 0.04 0.04 0.04 0.05 0.06 0.06 0.07 0.08 0.13 0.14 0.16 0.17 0.18 0.18 0.19 0.23 0.27 0.25 0.25 0.26 0.24
0.03 0.04 0.03 0.03 0.05 0.05 0.05 0.07 0.10 0.11 0.12 0.13 0.14 0.16 0.18 0.19 0.21 0.27 0.31 0.33 0.38 0.32
0.05 0.05 0.05 0.04 0.05 0.04 0.04 0.06 0.07 0.07 0.07 0.07 0.09 0.11 0.13 0.15 0.16 0.20 0.21 0.22 0.24 0.22
0.05 0.06 0.07 0.06 0.05 0.05 0.06 0.06 0.08 0.07 0.07 0.06 0.05 0.04 0.05 0.08 0.11 0.14 0.17 0.19 0.23 0.24
0.03 0.05 0.07 0.07 0.07 0.05 0.06 0.06 0.06 0.09 0.13 0.15 0.11 0.07 0.07 0.07 0.07 0.09 0.13 0.17 0.22 0.25
0.04 0.05 0.06 0.07 0.09 0.07 0.06 0.07 0.08 0.06 0.07 0.10 0.14 0.17 0.16 0.14 0.11 0.10 0.12 0.13 0.15 0.15
0.07 0.06 0.05 0.05 0.06 0.08 0.08 0.07 0.05 0.06 0.09 0.12 0.13 0.12 0.11 0.13 0.14 0.16 0.16 0.16 0.19 0.24
0.11 0.08 0.04 0.04 0.06 0.06 0.06 0.11 0.12 0.09 0.07 0.06 0.07 0.13 0.16 0.18 0.19 0.20 0.24 0.28 0.34 0.41
0.08 0.09 0.07 0.08 0.09 0.07 0.06 0.09 0.19 0.27 0.20 0.15 0.13 0.21 0.13 0.08 0.09 0.16 0.23 0.31 0.36 0.41
0.17 0.12 0.23 0.18 0.19 0.22 0.22 0.17 0.21 0.28 0.39 0.42 0.48 0.62 0.54 0.51 0.52 0.49 0.44 0.39 0.33 0.31
0.44 0.38 0.48 0.68 0.58 0.61 0.68 0.85 0.92 0.74 0.76 0.88 0.94 0.86 0.69 0.55 0.48 0.49 0.43 0.32 0.23 0.14
0.75 0.70 0.69 0.80 1.03 1.12 0.86 0.83 0.84 0.74 0.76 0.63 0.54 0.43 0.30 0.23 0.21 0.19 0.14 0.07 0.02 0.01
0.99 0.93 1.10 0.86 0.72 0.87 0.78 0.51 0.50 0.56 0.53 0.39 0.30 0.21 0.13 0.08 0.05 0.02 0.00 0.00 0.00 0.00
0.66 0.62 0.65 0.71 0.57 0.50 0.49 0.46 0.40 0.28 0.17 0.10 0.04 0.01 0.00 0.00 0.00 0.00 0.01 0.00 0.00 0.00

GFSNIL_prec_precacc_054.txt.gz
Total_Precipitation_Accumulation
0.03 0.04 0.04 0.04 0.05 0.06 0.06 0.07 0.08 0.13 0.14 0.16 0.17 0.18 0.18 0.19 0.23 0.28 0.27 0.28 0.28 0.27
0.03 0.04 0.03 0.03 0.05 0.05 0.05 0.07 0.10 0.11 0.12 0.13 0.14 0.16 0.18 0.19 0.21 0.27 0.31 0.35 0.40 0.34
0.05 0.05 0.05 0.04 0.05 0.04 0.04 0.06 0.07 0.07 0.07 0.07 0.09 0.11 0.13 0.15 0.16 0.20 0.21 0.22 0.25 0.23
0.05 0.06 0.07 0.06 0.05 0.05 0.06 0.06 0.08 0.07 0.07 0.06 0.05 0.04 0.05 0.08 0.11 0.14 0.17 0.19 0.23 0.24
0.03 0.05 0.07 0.07 0.07 0.05 0.06 0.06 0.06 0.09 0.13 0.15 0.11 0.07 0.07 0.07 0.07 0.09 0.14 0.18 0.23 0.25
0.04 0.05 0.06 0.07 0.09 0.07 0.06 0.07 0.08 0.06 0.07 0.10 0.14 0.17 0.16 0.14 0.11 0.11 0.12 0.13 0.15 0.16
0.07 0.06 0.05 0.05 0.06 0.08 0.08 0.07 0.05 0.06 0.09 0.12 0.13 0.12 0.11 0.13 0.14 0.16 0.16 0.16 0.19 0.24
0.11 0.08 0.04 0.04 0.06 0.06 0.06 0.11 0.12 0.09 0.07 0.06 0.07 0.13 0.16 0.18 0.19 0.20 0.24 0.28 0.34 0.41
0.08 0.09 0.07 0.08 0.09 0.07 0.06 0.09 0.19 0.27 0.20 0.15 0.13 0.22 0.13 0.08 0.09 0.16 0.23 0.31 0.36 0.42
0.17 0.12 0.23 0.18 0.19 0.22 0.22 0.17 0.21 0.28 0.39 0.42 0.48 0.62 0.54 0.51 0.52 0.49 0.44 0.39 0.33 0.31
0.44 0.38 0.48 0.68 0.58 0.61 0.68 0.85 0.92 0.74 0.76 0.88 0.94 0.86 0.69 0.55 0.48 0.49 0.43 0.32 0.23 0.14
0.75 0.70 0.69 0.80 1.03 1.12 0.86 0.83 0.84 0.74 0.76 0.63 0.54 0.43 0.30 0.23 0.21 0.19 0.14 0.07 0.02 0.01
0.99 0.93 1.10 0.86 0.72 0.87 0.78 0.51 0.50 0.56 0.53 0.39 0.30 0.21 0.13 0.08 0.05 0.02 0.00 0.00 0.00 0.00
0.66 0.62 0.65 0.71 0.57 0.50 0.49 0.46 0.40 0.28 0.17 0.10 0.04 0.01 0.00 0.00 0.00 0.00 0.01 0.00 0.00 0.00

GFSNIL_prec_precacc_057.txt.gz
Total_Precipitation_Accumulation
0.03 0.04 0.04 0.04 0.05 0.06 0.06 0.07 0.08 0.13 0.14 0.16 0.17 0.18 0.18 0.19 0.23 0.28 0.27 0.28 0.28 0.27
0.03 0.04 0.03 0.03 0.05 0.05 0.05 0.07 0.10 0.11 0.12 0.13 0.14 0.16 0.18 0.19 0.21 0.27 0.31 0.35 0.40 0.34
0.05 0.05 0.05 0.04 0.05 0.04 0.04 0.06 0.07 0.07 0.07 0.07 0.09 0.11 0.13 0.15 0.16 0.20 0.21 0.22 0.25 0.23
0.05 0.06 0.07 0.06 0.05 0.05 0.06 0.06 0.08 0.07 0.07 0.06 0.05 0.04 0.05 0.08 0.11 0.14 0.17 0.19 0.23 0.25
0.03 0.05 0.07 0.07 0.07 0.05 0.06 0.06 0.06 0.09 0.13 0.15 0.11 0.07 0.07 0.07 0.07 0.09 0.14 0.18 0.23 0.25
0.04 0.05 0.06 0.07 0.09 0.07 0.06 0.07 0.08 0.06 0.07 0.10 0.14 0.17 0.16 0.14 0.11 0.11 0.12 0.14 0.15 0.16
0.07 0.06 0.05 0.05 0.06 0.08 0.08 0.07 0.05 0.06 0.09 0.12 0.13 0.12 0.11 0.13 0.14 0.16 0.16 0.16 0.19 0.24
0.11 0.08 0.04 0.04 0.06 0.06 0.06 0.11 0.12 0.09 0.07 0.06 0.07 0.13 0.16 0.18 0.19 0.20 0.24 0.28 0.34 0.41
0.08 0.09 0.07 0.08 0.09 0.07 0.06 0.09 0.19 0.27 0.20 0.15 0.13 0.22 0.14 0.08 0.09 0.16 0.23 0.31 0.36 0.42
0.17 0.12 0.23 0.18 0.19 0.22 0.22 0.17 0.21 0.28 0.39 0.42 0.48 0.63 0.54 0.52 0.52 0.49 0.44 0.39 0.33 0.31
0.44 0.38 0.48 0.68 0.58 0.61 0.68 0.85 0.92 0.74 0.76 0.88 0.94 0.86 0.69 0.55 0.48 0.49 0.43 0.32 0.23 0.14
0.75 0.70 0.69 0.80 1.03 1.12 0.86 0.83 0.84 0.74 0.76 0.63 0.54 0.43 0.30 0.23 0.21 0.19 0.14 0.07 0.02 0.01
0.99 0.93 1.10 0.86 0.72 0.87 0.78 0.51 0.50 0.56 0.53 0.39 0.30 0.21 0.13 0.08 0.05 0.02 0.00 0.00 0.00 0.00
0.66 0.62 0.65 0.71 0.57 0.50 0.49 0.46 0.40 0.28 0.17 0.10 0.04 0.01 0.00 0.00 0.00 0.00 0.01 0.00 0.00 0.00

GFSNIL_prec_precacc_060.txt.gz
Total_Precipitation_Accumulation
0.03 0.04 0.04 0.04 0.05 0.06 0.06 0.07 0.08 0.13 0.14 0.16 0.17 0.18 0.18 0.19 0.23 0.28 0.28 0.28 0.28 0.27
0.03 0.04 0.03 0.03 0.05 0.05 0.05 0.07 0.10 0.11 0.12 0.13 0.14 0.16 0.18 0.19 0.21 0.27 0.31 0.35 0.40 0.34
0.05 0.05 0.05 0.04 0.05 0.04 0.04 0.06 0.07 0.07 0.07 0.07 0.09 0.11 0.13 0.15 0.16 0.20 0.21 0.22 0.25 0.23
0.05 0.06 0.07 0.06 0.05 0.05 0.06 0.06 0.08 0.07 0.07 0.06 0.05 0.04 0.05 0.08 0.11 0.14 0.17 0.19 0.23 0.25
0.03 0.05 0.07 0.07 0.07 0.05 0.06 0.06 0.06 0.09 0.13 0.15 0.11 0.07 0.07 0.07 0.07 0.09 0.14 0.18 0.23 0.25
0.04 0.05 0.06 0.07 0.09 0.07 0.06 0.07 0.08 0.06 0.07 0.10 0.14 0.17 0.16 0.14 0.11 0.11 0.12 0.14 0.15 0.16
0.07 0.06 0.05 0.05 0.06 0.08 0.08 0.07 0.05 0.06 0.09 0.12 0.13 0.12 0.11 0.13 0.14 0.16 0.16 0.16 0.19 0.24
0.11 0.08 0.04 0.04 0.06 0.06 0.06 0.11 0.12 0.09 0.07 0.06 0.07 0.13 0.16 0.18 0.19 0.20 0.24 0.28 0.34 0.41
0.08 0.09 0.07 0.08 0.09 0.07 0.06 0.09 0.19 0.27 0.20 0.15 0.13 0.23 0.14 0.08 0.09 0.16 0.23 0.31 0.36 0.42
0.17 0.12 0.23 0.18 0.19 0.22 0.22 0.17 0.21 0.28 0.39 0.42 0.48 0.63 0.55 0.52 0.52 0.49 0.44 0.39 0.33 0.31
0.44 0.38 0.48 0.68 0.58 0.61 0.68 0.85 0.92 0.74 0.76 0.88 0.94 0.86 0.69 0.55 0.48 0.49 0.43 0.32 0.23 0.14
0.75 0.70 0.69 0.80 1.03 1.12 0.86 0.83 0.84 0.74 0.76 0.63 0.54 0.43 0.30 0.23 0.21 0.19 0.14 0.07 0.02 0.01
0.99 0.93 1.10 0.86 0.72 0.87 0.78 0.51 0.50 0.56 0.53 0.39 0.30 0.21 0.13 0.08 0.05 0.02 0.00 0.00 0.00 0.00
0.66 0.62 0.65 0.71 0.57 0.50 0.49 0.46 0.40 0.28 0.17 0.10 0.04 0.01 0.00 0.00 0.00 0.00 0.01 0.00 0.00 0.00

GFSNIL_prec_precacc_063.txt.gz
Total_Precipitation_Accumulation
0.03 0.04 0.04 0.04 0.05 0.06 0.06 0.07 0.08 0.13 0.14 0.16 0.17 0.18 0.18 0.19 0.24 0.29 0.29 0.29 0.29 0.28
0.03 0.04 0.03 0.03 0.05 0.05 0.05 0.07 0.10 0.11 0.12 0.13 0.14 0.16 0.18 0.19 0.21 0.27 0.32 0.35 0.40 0.35
0.05 0.05 0.05 0.04 0.05 0.04 0.04 0.06 0.07 0.07 0.07 0.07 0.09 0.11 0.13 0.15 0.16 0.20 0.21 0.22 0.25 0.23
0.05 0.06 0.07 0.06 0.05 0.05 0.06 0.06 0.08 0.07 0.07 0.06 0.05 0.04 0.05 0.08 0.11 0.14 0.17 0.19 0.23 0.25
0.03 0.05 0.07 0.07 0.07 0.05 0.06 0.06 0.06 0.09 0.13 0.15 0.11 0.07 0.07 0.07 0.07 0.09 0.14 0.18 0.23 0.25
0.04 0.05 0.06 0.07 0.09 0.07 0.06 0.07 0.08 0.06 0.07 0.10 0.14 0.17 0.16 0.14 0.11 0.11 0.12 0.14 0.15 0.16
0.07 0.06 0.05 0.05 0.06 0.08 0.08 0.07 0.05 0.06 0.09 0.12 0.13 0.12 0.11 0.13 0.14 0.16 0.16 0.16 0.19 0.24
0.11 0.08 0.04 0.04 0.06 0.06 0.06 0.11 0.12 0.09 0.07 0.06 0.07 0.13 0.16 0.18 0.19 0.20 0.24 0.28 0.34 0.41
0.08 0.09 0.07 0.08 0.09 0.07 0.06 0.09 0.19 0.27 0.20 0.15 0.13 0.24 0.15 0.09 0.09 0.16 0.23 0.31 0.36 0.42
0.17 0.12 0.23 0.18 0.19 0.22 0.22 0.17 0.21 0.28 0.39 0.42 0.48 0.64 0.55 0.52 0.52 0.49 0.44 0.39 0.33 0.31
0.44 0.38 0.48 0.68 0.58 0.61 0.68 0.85 0.92 0.74 0.76 0.88 0.94 0.86 0.69 0.55 0.48 0.49 0.43 0.32 0.23 0.14
0.75 0.70 0.69 0.80 1.03 1.12 0.86 0.83 0.84 0.74 0.76 0.63 0.54 0.43 0.30 0.23 0.21 0.19 0.14 0.07 0.02 0.01
0.99 0.93 1.10 0.86 0.72 0.87 0.78 0.51 0.50 0.56 0.53 0.39 0.30 0.21 0.13 0.08 0.05 0.02 0.00 0.00 0.00 0.00
0.66 0.62 0.65 0.71 0.57 0.50 0.49 0.46 0.40 0.28 0.17 0.10 0.04 0.01 0.00 0.00 0.00 0.00 0.01 0.00 0.00 0.00

GFSNIL_prec_precacc_066.txt.gz
Total_Precipitation_Accumulation
0.03 0.04 0.04 0.04 0.05 0.06 0.06 0.07 0.08 0.13 0.14 0.16 0.17 0.18 0.18 0.19 0.24 0.29 0.29 0.30 0.30 0.28
0.03 0.04 0.03 0.03 0.05 0.05 0.05 0.07 0.10 0.11 0.12 0.13 0.14 0.16 0.18 0.19 0.21 0.27 0.32 0.35 0.41 0.36
0.05 0.05 0.05 0.04 0.05 0.04 0.04 0.06 0.07 0.07 0.07 0.07 0.09 0.11 0.13 0.15 0.16 0.20 0.21 0.22 0.25 0.23
0.05 0.06 0.07 0.06 0.05 0.05 0.06 0.06 0.08 0.07 0.07 0.06 0.05 0.04 0.05 0.08 0.11 0.14 0.17 0.19 0.23 0.25
0.03 0.05 0.07 0.07 0.07 0.05 0.06 0.06 0.06 0.09 0.13 0.15 0.11 0.07 0.07 0.07 0.07 0.09 0.14 0.18 0.23 0.25
0.04 0.05 0.06 0.07 0.09 0.07 0.06 0.07 0.08 0.06 0.07 0.10 0.14 0.17 0.16 0.14 0.11 0.11 0.12 0.14 0.15 0.16
0.07 0.06 0.05 0.05 0.06 0.08 0.08 0.07 0.05 0.06 0.09 0.12 0.13 0.12 0.11 0.13 0.14 0.16 0.16 0.16 0.19 0.24
0.11 0.08 0.04 0.04 0.06 0.06 0.06 0.11 0.12 0.09 0.07 0.06 0.07 0.13 0.16 0.18 0.19 0.20 0.24 0.28 0.34 0.41
0.08 0.09 0.07 0.08 0.09 0.07 0.06 0.09 0.19 0.27 0.20 0.15 0.13 0.24 0.15 0.09 0.09 0.16 0.23 0.31 0.36 0.42
0.17 0.12 0.23 0.18 0.19 0.22 0.22 0.17 0.21 0.28 0.39 0.42 0.49 0.64 0.55 0.52 0.52 0.49 0.44 0.39 0.33 0.31
0.44 0.38 0.48 0.68 0.58 0.61 0.68 0.85 0.92 0.74 0.76 0.88 0.94 0.86 0.69 0.55 0.48 0.49 0.43 0.32 0.23 0.14
0.75 0.70 0.69 0.80 1.03 1.12 0.86 0.83 0.84 0.74 0.76 0.63 0.54 0.43 0.30 0.23 0.21 0.19 0.14 0.07 0.02 0.01
0.99 0.93 1.10 0.86 0.72 0.87 0.78 0.51 0.50 0.56 0.53 0.39 0.30 0.21 0.13 0.08 0.05 0.02 0.00 0.00 0.00 0.00
0.66 0.62 0.65 0.71 0.57 0.50 0.49 0.46 0.40 0.28 0.17 0.10 0.04 0.01 0.00 0.00 0.00 0.00 0.01 0.00 0.00 0.00

GFSNIL_prec_precacc_069.txt.gz
Total_Precipitation_Accumulation
0.03 0.04 0.04 0.04 0.05 0.06 0.06 0.07 0.08 0.13 0.14 0.16 0.17 0.18 0.18 0.19 0.24 0.29 0.30 0.31 0.31 0.29
0.03 0.04 0.03 0.03 0.05 0.05 0.05 0.07 0.10 0.11 0.12 0.13 0.14 0.16 0.18 0.19 0.21 0.27 0.32 0.36 0.41 0.37
0.05 0.05 0.05 0.04 0.05 0.04 0.04 0.06 0.07 0.07 0.07 0.07 0.09 0.11 0.13 0.15 0.16 0.20 0.21 0.22 0.25 0.23
0.05 0.06 0.07 0.06 0.05 0.05 0.06 0.06 0.08 0.07 0.07 0.06 0.05 0.04 0.05 0.08 0.11 0.14 0.17 0.19 0.23 0.25
0.03 0.05 0.07 0.07 0.07 0.05 0.06 0.06 0.06 0.09 0.13 0.15 0.11 0.07 0.07 0.07 0.07 0.09 0.14 0.18 0.23 0.25
0.04 0.05 0.06 0.07 0.09 0.07 0.06 0.07 0.08 0.06 0.07 0.10 0.14 0.17 0.16 0.14 0.11 0.11 0.12 0.14 0.15 0.16
0.07 0.06 0.05 0.05 0.06 0.08 0.08 0.07 0.05 0.06 0.09 0.12 0.13 0.12 0.11 0.13 0.14 0.16 0.16 0.16 0.19 0.24
0.11 0.08 0.04 0.04 0.06 0.06 0.06 0.11 0.12 0.09 0.07 0.06 0.07 0.13 0.16 0.18 0.19 0.20 0.24 0.28 0.34 0.41
0.08 0.09 0.07 0.08 0.09 0.07 0.06 0.09 0.19 0.27 0.20 0.15 0.13 0.24 0.15 0.09 0.09 0.16 0.23 0.31 0.36 0.42
0.17 0.12 0.23 0.18 0.19 0.22 0.22 0.17 0.21 0.28 0.39 0.42 0.49 0.64 0.55 0.52 0.52 0.49 0.44 0.39 0.33 0.31
0.44 0.38 0.48 0.68 0.58 0.61 0.68 0.85 0.92 0.74 0.76 0.88 0.94 0.87 0.69 0.55 0.48 0.49 0.43 0.32 0.23 0.14
0.75 0.70 0.69 0.80 1.03 1.12 0.86 0.83 0.84 0.74 0.76 0.63 0.54 0.43 0.30 0.23 0.21 0.19 0.14 0.07 0.02 0.01
0.99 0.93 1.10 0.86 0.72 0.87 0.78 0.51 0.50 0.56 0.53 0.39 0.30 0.21 0.13 0.08 0.05 0.02 0.00 0.00 0.00 0.00
0.66 0.62 0.65 0.71 0.57 0.50 0.49 0.46 0.40 0.28 0.17 0.10 0.04 0.01 0.00 0.00 0.00 0.00 0.01 0.00 0.00 0.00

GFSNIL_prec_precacc_072.txt.gz
Total_Precipitation_Accumulation
0.03 0.04 0.04 0.04 0.05 0.06 0.06 0.07 0.08 0.13 0.14 0.16 0.17 0.18 0.18 0.19 0.24 0.29 0.30 0.31 0.31 0.30
0.03 0.04 0.03 0.03 0.05 0.05 0.05 0.07 0.10 0.11 0.12 0.13 0.14 0.16 0.18 0.19 0.21 0.27 0.32 0.36 0.41 0.37
0.05 0.05 0.05 0.04 0.05 0.04 0.04 0.06 0.07 0.07 0.07 0.07 0.09 0.11 0.13 0.15 0.16 0.20 0.21 0.22 0.25 0.24
0.05 0.06 0.07 0.06 0.05 0.05 0.06 0.06 0.08 0.07 0.07 0.06 0.05 0.04 0.05 0.08 0.11 0.14 0.17 0.19 0.23 0.25
0.03 0.05 0.07 0.07 0.07 0.05 0.06 0.06 0.06 0.09 0.13 0.15 0.11 0.07 0.07 0.07 0.07 0.09 0.14 0.18 0.23 0.25
0.04 0.05 0.06 0.07 0.09 0.07 0.06 0.07 0.08 0.06 0.07 0.10 0.14 0.17 0.16 0.14 0.11 0.11 0.12 0.14 0.15 0.16
0.07 0.06 0.05 0.05 0.06 0.08 0.08 0.07 0.05 0.06 0.09 0.12 0.13 0.12 0.11 0.13 0.14 0.16 0.16 0.16 0.19 0.24
0.11 0.08 0.04 0.04 0.06 0.06 0.06 0.11 0.12 0.09 0.07 0.06 0.07 0.13 0.16 0.18 0.19 0.20 0.24 0.28 0.34 0.41
0.08 0.09 0.07 0.08 0.09 0.07 0.06 0.09 0.19 0.27 0.20 0.15 0.13 0.24 0.15 0.09 0.09 0.16 0.23 0.31 0.36 0.42
0.17 0.12 0.23 0.18 0.19 0.22 0.22 0.17 0.21 0.28 0.39 0.42 0.49 0.65 0.56 0.52 0.52 0.49 0.44 0.39 0.33 0.31
0.44 0.38 0.48 0.68 0.58 0.61 0.68 0.85 0.92 0.74 0.76 0.88 0.94 0.87 0.70 0.55 0.48 0.49 0.43 0.32 0.23 0.14
0.75 0.70 0.69 0.80 1.03 1.12 0.86 0.83 0.84 0.74 0.76 0.63 0.54 0.43 0.30 0.23 0.21 0.19 0.14 0.07 0.02 0.01
0.99 0.93 1.10 0.86 0.72 0.87 0.78 0.51 0.50 0.56 0.53 0.39 0.30 0.21 0.13 0.08 0.05 0.02 0.00 0.00 0.00 0.00
0.66 0.62 0.65 0.71 0.57 0.50 0.49 0.46 0.40 0.28 0.17 0.10 0.04 0.01 0.00 0.00 0.00 0.00 0.01 0.00 0.00 0.00

GFSNIL_prec_precacc_075.txt.gz
Total_Precipitation_Accumulation
0.03 0.04 0.04 0.04 0.05 0.06 0.06 0.07 0.08 0.13 0.14 0.16 0.17 0.18 0.18 0.19 0.24 0.29 0.30 0.31 0.31 0.31
0.03 0.04 0.03 0.03 0.05 0.05 0.05 0.07 0.10 0.11 0.12 0.13 0.14 0.16 0.18 0.19 0.21 0.27 0.32 0.36 0.41 0.37
0.05 0.05 0.05 0.04 0.05 0.04 0.04 0.06 0.07 0.07 0.07 0.07 0.09 0.11 0.13 0.15 0.16 0.20 0.21 0.22 0.25 0.24
0.05 0.06 0.07 0.06 0.05 0.05 0.06 0.06 0.08 0.07 0.07 0.06 0.05 0.04 0.05 0.08 0.11 0.14 0.17 0.19 0.23 0.25
0.03 0.05 0.07 0.07 0.07 0.05 0.06 0.06 0.06 0.09 0.13 0.15 0.11 0.07 0.07 0.07 0.07 0.09 0.14 0.18 0.23 0.25
0.04 0.05 0.06 0.07 0.09 0.07 0.06 0.07 0.08 0.06 0.07 0.10 0.14 0.17 0.16 0.14 0.11 0.11 0.12 0.14 0.15 0.16
0.07 0.06 0.05 0.05 0.06 0.08 0.08 0.07 0.05 0.06 0.09 0.12 0.13 0.12 0.11 0.13 0.14 0.16 0.16 0.16 0.19 0.24
0.11 0.08 0.04 0.04 0.06 0.06 0.06 0.11 0.12 0.09 0.07 0.06 0.07 0.13 0.16 0.18 0.19 0.20 0.24 0.28 0.34 0.41
0.08 0.09 0.07 0.08 0.09 0.07 0.06 0.09 0.19 0.27 0.20 0.15 0.13 0.25 0.15 0.09 0.09 0.16 0.23 0.31 0.36 0.42
0.17 0.12 0.23 0.18 0.19 0.22 0.22 0.17 0.21 0.28 0.39 0.42 0.49 0.66 0.56 0.52 0.52 0.49 0.44 0.39 0.33 0.31
0.44 0.38 0.48 0.68 0.58 0.61 0.68 0.85 0.92 0.74 0.76 0.88 0.94 0.87 0.70 0.55 0.48 0.49 0.43 0.32 0.23 0.14
0.75 0.70 0.69 0.80 1.03 1.12 0.86 0.83 0.84 0.74 0.76 0.63 0.54 0.44 0.30 0.23 0.21 0.19 0.14 0.07 0.02 0.01
0.99 0.93 1.10 0.86 0.72 0.87 0.78 0.51 0.50 0.56 0.53 0.39 0.30 0.21 0.13 0.08 0.05 0.02 0.00 0.00 0.00 0.00
0.66 0.62 0.65 0.71 0.57 0.50 0.49 0.46 0.40 0.28 0.17 0.10 0.04 0.01 0.00 0.00 0.00 0.00 0.01 0.00 0.00 0.00

GFSNIL_prec_precacc_078.txt.gz
Total_Precipitation_Accumulation
0.04 0.06 0.07 0.06 0.07 0.08 0.06 0.07 0.08 0.13 0.14 0.16 0.17 0.18 0.18 0.19 0.24 0.29 0.30 0.31 0.31 0.31
0.03 0.04 0.03 0.03 0.05 0.05 0.05 0.07 0.10 0.11 0.12 0.13 0.14 0.16 0.18 0.19 0.21 0.27 0.32 0.36 0.41 0.37
0.05 0.05 0.05 0.04 0.05 0.04 0.04 0.06 0.07 0.07 0.07 0.07 0.09 0.11 0.13 0.15 0.16 0.20 0.21 0.22 0.25 0.24
0.05 0.06 0.07 0.06 0.05 0.05 0.06 0.06 0.08 0.07 0.07 0.06 0.05 0.04 0.05 0.08 0.11 0.14 0.17 0.19 0.23 0.25
0.03 0.05 0.07 0.07 0.07 0.05 0.06 0.06 0.06 0.09 0.13 0.15 0.11 0.07 0.07 0.07 0.07 0.09 0.14 0.18 0.23 0.25
0.04 0.05 0.06 0.07 0.09 0.07 0.06 0.07 0.08 0.06 0.07 0.10 0.14 0.17 0.16 0.14 0.11 0.11 0.12 0.14 0.15 0.16
0.07 0.06 0.05 0.05 0.06 0.08 0.08 0.07 0.05 0.06 0.09 0.12 0.13 0.12 0.11 0.13 0.14 0.16 0.16 0.16 0.19 0.24
0.11 0.08 0.04 0.04 0.06 0.06 0.06 0.11 0.12 0.09 0.07 0.06 0.07 0.13 0.16 0.18 0.19 0.20 0.24 0.28 0.34 0.41
0.08 0.09 0.07 0.08 0.09 0.07 0.06 0.09 0.19 0.27 0.20 0.15 0.13 0.25 0.16 0.09 0.09 0.16 0.23 0.31 0.36 0.42
0.17 0.12 0.23 0.18 0.19 0.22 0.22 0.17 0.21 0.28 0.39 0.42 0.49 0.66 0.56 0.53 0.52 0.49 0.44 0.39 0.33 0.31
0.44 0.38 0.48 0.68 0.58 0.61 0.68 0.85 0.92 0.74 0.76 0.88 0.95 0.88 0.70 0.56 0.48 0.49 0.43 0.32 0.23 0.14
0.75 0.70 0.69 0.80 1.03 1.12 0.86 0.83 0.84 0.74 0.76 0.63 0.54 0.44 0.31 0.24 0.21 0.19 0.14 0.07 0.02 0.01
0.99 0.93 1.10 0.86 0.72 0.87 0.78 0.51 0.50 0.56 0.53 0.39 0.30 0.21 0.14 0.08 0.05 0.02 0.00 0.00 0.00 0.00
0.66 0.62 0.65 0.71 0.57 0.50 0.49 0.46 0.41 0.28 0.17 0.10 0.05 0.01 0.00 0.00 0.00 0.00 0.01 0.00 0.00 0.00

GFSNIL_prec_precacc_081.txt.gz
Total_Precipitation_Accumulation
0.09 0.09 0.10 0.10 0.11 0.12 0.10 0.10 0.09 0.14 0.14 0.16 0.17 0.18 0.18 0.19 0.24 0.29 0.30 0.31 0.31 0.31
0.03 0.04 0.04 0.06 0.07 0.07 0.06 0.08 0.10 0.11 0.12 0.13 0.14 0.16 0.18 0.19 0.21 0.27 0.32 0.36 0.41 0.37
0.05 0.05 0.05 0.04 0.05 0.04 0.04 0.06 0.07 0.07 0.07 0.07 0.09 0.11 0.13 0.15 0.16 0.20 0.21 0.22 0.25 0.24
0.05 0.06 0.07 0.06 0.05 0.05 0.06 0.06 0.08 0.07 0.07 0.06 0.05 0.04 0.05 0.08 0.11 0.14 0.17 0.19 0.23 0.25
0.03 0.05 0.07 0.07 0.07 0.05 0.06 0.06 0.06 0.09 0.13 0.15 0.11 0.07 0.07 0.07 0.07 0.09 0.14 0.18 0.23 0.25
0.04 0.05 0.06 0.07 0.09 0.07 0.06 0.07 0.08 0.06 0.07 0.10 0.14 0.17 0.16 0.14 0.11 0.11 0.12 0.14 0.15 0.16
0.07 0.06 0.05 0.05 0.06 0.08 0.08 0.07 0.05 0.06 0.09 0.12 0.13 0.12 0.11 0.13 0.14 0.16 0.16 0.16 0.19 0.24
0.11 0.08 0.04 0.04 0.06 0.06 0.06 0.11 0.12 0.09 0.07 0.06 0.07 0.13 0.16 0.18 0.19 0.20 0.24 0.28 0.34 0.41
0.08 0.09 0.07 0.08 0.09 0.07 0.06 0.09 0.19 0.27 0.20 0.15 0.13 0.25 0.16 0.09 0.09 0.16 0.23 0.31 0.36 0.42
0.17 0.12 0.23 0.18 0.19 0.22 0.22 0.17 0.21 0.28 0.39 0.42 0.49 0.66 0.56 0.53 0.52 0.49 0.44 0.39 0.33 0.31
0.44 0.38 0.48 0.68 0.58 0.61 0.68 0.85 0.92 0.74 0.76 0.88 0.95 0.88 0.70 0.56 0.48 0.49 0.43 0.32 0.23 0.14
0.75 0.70 0.69 0.80 1.03 1.12 0.86 0.83 0.84 0.74 0.76 0.63 0.54 0.44 0.31 0.24 0.21 0.19 0.14 0.07 0.02 0.01
0.99 0.93 1.10 0.86 0.72 0.87 0.78 0.51 0.50 0.56 0.53 0.40 0.30 0.21 0.14 0.08 0.05 0.02 0.00 0.00 0.00 0.00
0.66 0.62 0.65 0.71 0.57 0.50 0.49 0.46 0.41 0.28 0.17 0.10 0.05 0.01 0.00 0.01 0.00 0.00 0.01 0.00 0.00 0.00

GFSNIL_prec_precacc_084.txt.gz
Total_Precipitation_Accumulation
0.11 0.10 0.10 0.16 0.25 0.17 0.12 0.12 0.10 0.14 0.15 0.16 0.17 0.18 0.18 0.19 0.24 0.29 0.30 0.31 0.31 0.31
0.03 0.05 0.05 0.10 0.10 0.10 0.09 0.10 0.11 0.12 0.12 0.13 0.14 0.16 0.18 0.19 0.21 0.27 0.32 0.36 0.41 0.37
0.05 0.05 0.05 0.05 0.05 0.05 0.05 0.06 0.07 0.07 0.07 0.07 0.09 0.11 0.13 0.15 0.16 0.20 0.21 0.22 0.25 0.24
0.05 0.06 0.07 0.06 0.05 0.05 0.06 0.06 0.08 0.07 0.07 0.06 0.05 0.04 0.05 0.08 0.11 0.14 0.17 0.19 0.23 0.25
0.03 0.05 0.07 0.07 0.07 0.05 0.06 0.06 0.06 0.09 0.13 0.15 0.11 0.07 0.07 0.07 0.07 0.09 0.14 0.18 0.23 0.25
0.04 0.05 0.06 0.07 0.09 0.07 0.06 0.07 0.08 0.06 0.07 0.10 0.14 0.17 0.16 0.14 0.11 0.11 0.12 0.14 0.15 0.16
0.07 0.06 0.05 0.05 0.06 0.08 0.08 0.07 0.05 0.06 0.09 0.12 0.13 0.12 0.11 0.13 0.14 0.16 0.16 0.16 0.19 0.24
0.11 0.08 0.04 0.04 0.06 0.06 0.06 0.11 0.12 0.09 0.07 0.06 0.07 0.13 0.16 0.18 0.19 0.20 0.24 0.28 0.34 0.41
0.08 0.09 0.07 0.08 0.09 0.07 0.06 0.09 0.19 0.27 0.20 0.15 0.13 0.25 0.16 0.09 0.09 0.16 0.23 0.31 0.36 0.42
0.17 0.12 0.23 0.18 0.19 0.22 0.22 0.17 0.21 0.28 0.39 0.42 0.49 0.66 0.56 0.53 0.52 0.49 0.44 0.39 0.33 0.31
0.44 0.38 0.48 0.68 0.58 0.61 0.68 0.85 0.92 0.74 0.76 0.88 0.95 0.88 0.71 0.56 0.48 0.49 0.43 0.33 0.23 0.14
0.75 0.70 0.69 0.80 1.03 1.12 0.86 0.83 0.84 0.74 0.76 0.63 0.54 0.44 0.31 0.24 0.21 0.19 0.14 0.07 0.02 0.01
0.99 0.93 1.10 0.86 0.72 0.87 0.78 0.51 0.50 0.56 0.53 0.40 0.30 0.21 0.14 0.09 0.05 0.02 0.00 0.00 0.00 0.01
0.66 0.62 0.65 0.71 0.57 0.50 0.49 0.46 0.41 0.28 0.17 0.10 0.05 0.01 0.01 0.01 0.00 0.00 0.01 0.00 0.00 0.00

GFSNIL_prec_precacc_087.txt.gz
Total_Precipitation_Accumulation
0.11 0.10 0.10 0.16 0.28 0.22 0.16 0.15 0.10 0.14 0.15 0.16 0.17 0.18 0.18 0.19 0.24 0.29 0.30 0.31 0.31 0.31
0.03 0.05 0.05 0.10 0.10 0.10 0.10 0.10 0.11 0.12 0.12 0.13 0.14 0.16 0.18 0.19 0.21 0.27 0.32 0.36 0.41 0.37
0.05 0.05 0.05 0.05 0.05 0.05 0.05 0.06 0.07 0.07 0.07 0.07 0.09 0.11 0.13 0.15 0.16 0.20 0.21 0.22 0.25 0.24
0.05 0.06 0.07 0.06 0.05 0.05 0.06 0.06 0.08 0.07 0.07 0.06 0.05 0.04 0.05 0.08 0.11 0.14 0.17 0.19 0.23 0.25
0.03 0.05 0.07 0.07 0.07 0.05 0.06 0.06 0.06 0.09 0.13 0.15 0.11 0.07 0.07 0.07 0.07 0.09 0.14 0.18 0.23 0.25
0.04 0.05 0.06 0.07 0.09 0.07 0.06 0.07 0.08 0.06 0.07 0.10 0.14 0.17 0.16 0.14 0.11 0.11 0.12 0.14 0.15 0.16
0.07 0.06 0.05 0.05 0.06 0.08 0.08 0.07 0.05 0.06 0.09 0.12 0.13 0.12 0.11 0.13 0.14 0.16 0.16 0.16 0.19 0.24
0.11 0.08 0.04 0.04 0.06 0.06 0.06 0.11 0.12 0.09 0.07 0.06 0.07 0.13 0.16 0.18 0.19 0.20 0.24 0.28 0.34 0.41
0.08 0.09 0.07 0.08 0.09 0.07 0.06 0.09 0.19 0.27 0.20 0.15 0.13 0.25 0.16 0.09 0.09 0.16 0.23 0.31 0.36 0.42
0.17 0.12 0.23 0.18 0.19 0.22 0.22 0.17 0.21 0.28 0.39 0.42 0.49 0.66 0.56 0.53 0.52 0.49 0.44 0.39 0.33 0.31
0.44 0.38 0.48 0.68 0.58 0.61 0.68 0.85 0.92 0.74 0.76 0.88 0.95 0.88 0.71 0.56 0.48 0.49 0.43 0.33 0.23 0.14
0.75 0.70 0.69 0.80 1.03 1.12 0.86 0.83 0.84 0.74 0.76 0.63 0.54 0.44 0.31 0.24 0.21 0.19 0.14 0.07 0.02 0.01
0.99 0.93 1.10 0.86 0.72 0.87 0.78 0.51 0.50 0.56 0.53 0.40 0.30 0.21 0.14 0.09 0.05 0.02 0.00 0.00 0.00 0.01
0.66 0.62 0.65 0.71 0.57 0.50 0.49 0.46 0.41 0.28 0.17 0.10 0.05 0.01 0.01 0.01 0.00 0.00 0.01 0.00 0.00 0.00

GFSNIL_prec_precacc_090.txt.gz
Total_Precipitation_Accumulation
0.11 0.10 0.11 0.16 0.28 0.22 0.17 0.19 0.14 0.19 0.19 0.20 0.18 0.18 0.18 0.19 0.24 0.29 0.30 0.31 0.31 0.31
0.03 0.05 0.05 0.10 0.10 0.11 0.11 0.12 0.12 0.12 0.13 0.14 0.15 0.16 0.18 0.19 0.21 0.27 0.32 0.36 0.41 0.37
0.05 0.05 0.05 0.05 0.05 0.05 0.05 0.07 0.07 0.07 0.07 0.07 0.09 0.11 0.13 0.15 0.16 0.20 0.21 0.22 0.25 0.24
0.05 0.06 0.07 0.06 0.05 0.05 0.06 0.06 0.08 0.07 0.07 0.06 0.05 0.04 0.05 0.08 0.11 0.14 0.17 0.19 0.23 0.25
0.03 0.05 0.07 0.07 0.07 0.05 0.06 0.06 0.06 0.09 0.13 0.15 0.11 0.07 0.07 0.07 0.07 0.09 0.14 0.18 0.23 0.25
0.04 0.05 0.06 0.07 0.09 0.07 0.06 0.07 0.08 0.06 0.07 0.10 0.14 0.17 0.16 0.14 0.11 0.11 0.12 0.14 0.15 0.16
0.07 0.06 0.05 0.05 0.06 0.08 0.08 0.07 0.05 0.06 0.09 0.12 0.13 0.12 0.11 0.13 0.14 0.16 0.16 0.16 0.19 0.24
0.11 0.08 0.04 0.04 0.06 0.06 0.06 0.11 0.12 0.09 0.07 0.06 0.07 0.13 0.16 0.18 0.19 0.20 0.24 0.28 0.34 0.41
0.08 0.09 0.07 0.08 0.09 0.07 0.06 0.09 0.19 0.27 0.20 0.15 0.13 0.25 0.16 0.09 0.09 0.16 0.23 0.31 0.36 0.42
0.17 0.12 0.23 0.18 0.19 0.22 0.22 0.17 0.21 0.28 0.39 0.42 0.49 0.66 0.56 0.53 0.52 0.49 0.44 0.39 0.33 0.31
0.44 0.38 0.48 0.68 0.58 0.61 0.68 0.85 0.92 0.74 0.76 0.88 0.95 0.88 0.71 0.56 0.48 0.49 0.43 0.33 0.23 0.14
0.75 0.70 0.69 0.80 1.03 1.12 0.86 0.83 0.84 0.74 0.76 0.63 0.54 0.44 0.31 0.24 0.21 0.19 0.14 0.07 0.02 0.01
0.99 0.93 1.10 0.86 0.72 0.87 0.78 0.51 0.50 0.56 0.53 0.40 0.30 0.21 0.14 0.09 0.05 0.02 0.00 0.00 0.00 0.01
0.66 0.62 0.65 0.71 0.57 0.50 0.49 0.46 0.41 0.28 0.17 0.10 0.05 0.01 0.01 0.01 0.01 0.00 0.01 0.00 0.00 0.00

GFSNIL_prec_precacc_093.txt.gz
Total_Precipitation_Accumulation
0.18 0.20 0.20 0.27 0.35 0.33 0.20 0.19 0.18 0.21 0.19 0.27 0.27 0.21 0.18 0.19 0.24 0.29 0.30 0.31 0.31 0.31
0.06 0.07 0.06 0.10 0.10 0.11 0.12 0.12 0.13 0.13 0.14 0.17 0.18 0.18 0.18 0.19 0.21 0.27 0.32 0.36 0.41 0.37
0.05 0.05 0.05 0.05 0.05 0.05 0.05 0.07 0.09 0.08 0.09 0.10 0.12 0.13 0.14 0.16 0.16 0.20 0.21 0.22 0.25 0.24
0.05 0.06 0.07 0.06 0.05 0.05 0.06 0.06 0.08 0.07 0.08 0.08 0.06 0.06 0.06 0.08 0.11 0.14 0.17 0.19 0.23 0.25
0.03 0.05 0.07 0.07 0.07 0.05 0.06 0.06 0.06 0.09 0.13 0.16 0.12 0.08 0.08 0.08 0.07 0.09 0.14 0.18 0.23 0.25
0.04 0.05 0.06 0.07 0.09 0.07 0.06 0.07 0.08 0.06 0.07 0.10 0.14 0.17 0.17 0.14 0.12 0.11 0.12 0.14 0.15 0.16
0.07 0.06 0.05 0.05 0.06 0.08 0.08 0.07 0.05 0.06 0.09 0.12 0.13 0.12 0.11 0.13 0.14 0.16 0.16 0.16 0.19 0.24
0.11 0.08 0.04 0.04 0.06 0.06 0.06 0.11 0.12 0.09 0.07 0.06 0.07 0.13 0.16 0.18 0.19 0.20 0.24 0.28 0.34 0.41
0.08 0.09 0.07 0.08 0.09 0.07 0.06 0.09 0.19 0.27 0.20 0.15 0.13 0.25 0.16 0.09 0.09 0.16 0.23 0.31 0.36 0.42
0.17 0.12 0.23 0.18 0.19 0.22 0.22 0.17 0.21 0.28 0.39 0.42 0.49 0.66 0.56 0.53 0.52 0.49 0.44 0.39 0.33 0.31
0.44 0.38 0.48 0.68 0.58 0.61 0.68 0.85 0.92 0.74 0.76 0.88 0.95 0.88 0.71 0.56 0.48 0.49 0.43 0.33 0.23 0.14
0.75 0.70 0.69 0.80 1.03 1.12 0.86 0.83 0.84 0.74 0.76 0.63 0.54 0.44 0.31 0.24 0.21 0.19 0.14 0.07 0.02 0.01
0.99 0.93 1.10 0.86 0.72 0.87 0.78 0.51 0.50 0.56 0.53 0.40 0.30 0.21 0.14 0.09 0.05 0.02 0.00 0.00 0.00 0.01
0.66 0.62 0.65 0.71 0.57 0.50 0.49 0.46 0.41 0.28 0.17 0.10 0.05 0.01 0.01 0.01 0.01 0.00 0.01 0.00 0.00 0.00

GFSNIL_prec_precacc_096.txt.gz
Total_Precipitation_Accumulation
0.22 0.28 0.25 0.32 0.42 0.42 0.28 0.24 0.20 0.25 0.23 0.29 0.37 0.41 0.36 0.29 0.27 0.29 0.30 0.31 0.31 0.31
0.23 0.27 0.26 0.26 0.24 0.26 0.28 0.24 0.22 0.17 0.15 0.18 0.20 0.23 0.25 0.25 0.24 0.28 0.32 0.36 0.41 0.37
0.06 0.07 0.08 0.08 0.08 0.08 0.10 0.10 0.10 0.09 0.09 0.11 0.15 0.21 0.19 0.20 0.19 0.21 0.21 0.22 0.25 0.24
0.05 0.06 0.07 0.06 0.05 0.05 0.06 0.06 0.08 0.07 0.08 0.08 0.09 0.09 0.07 0.09 0.11 0.14 0.17 0.19 0.23 0.25
0.03 0.05 0.07 0.07 0.07 0.05 0.06 0.06 0.06 0.09 0.13 0.16 0.12 0.09 0.09 0.09 0.09 0.10 0.14 0.18 0.23 0.25
0.04 0.05 0.06 0.07 0.09 0.07 0.06 0.07 0.08 0.06 0.07 0.10 0.14 0.17 0.17 0.15 0.12 0.11 0.13 0.14 0.15 0.16
0.07 0.06 0.05 0.05 0.06 0.08 0.08 0.07 0.05 0.06 0.09 0.12 0.13 0.12 0.11 0.13 0.14 0.16 0.16 0.16 0.19 0.24
0.11 0.08 0.04 0.04 0.06 0.06 0.06 0.11 0.12 0.09 0.07 0.06 0.07 0.13 0.16 0.18 0.19 0.20 0.24 0.28 0.34 0.41
0.08 0.09 0.07 0.08 0.09 0.07 0.06 0.09 0.19 0.27 0.20 0.15 0.13 0.25 0.16 0.09 0.09 0.16 0.23 0.31 0.36 0.42
0.17 0.12 0.23 0.18 0.19 0.22 0.22 0.17 0.21 0.28 0.39 0.42 0.49 0.66 0.56 0.53 0.52 0.49 0.44 0.39 0.33 0.31
0.44 0.38 0.48 0.68 0.58 0.61 0.68 0.85 0.92 0.74 0.76 0.88 0.95 0.88 0.71 0.56 0.48 0.49 0.43 0.33 0.23 0.14
0.75 0.70 0.69 0.80 1.03 1.12 0.86 0.83 0.84 0.74 0.76 0.63 0.54 0.44 0.31 0.24 0.21 0.19 0.14 0.07 0.02 0.01
0.99 0.93 1.10 0.86 0.72 0.87 0.78 0.51 0.50 0.56 0.53 0.40 0.30 0.21 0.14 0.09 0.05 0.02 0.00 0.00 0.00 0.01
0.66 0.62 0.65 0.71 0.57 0.50 0.49 0.46 0.41 0.28 0.17 0.10 0.05 0.01 0.01 0.01 0.01 0.00 0.01 0.00 0.00 0.00

GFSNIL_prec_precacc_099.txt.gz
Total_Precipitation_Accumulation
0.30 0.37 0.31 0.35 0.44 0.44 0.31 0.28 0.26 0.27 0.24 0.30 0.38 0.41 0.40 0.39 0.36 0.34 0.32 0.34 0.33 0.32
0.30 0.40 0.41 0.36 0.28 0.30 0.33 0.29 0.30 0.21 0.15 0.19 0.21 0.23 0.29 0.31 0.37 0.41 0.41 0.40 0.43 0.37
0.07 0.09 0.14 0.16 0.19 0.18 0.18 0.15 0.20 0.21 0.14 0.13 0.17 0.24 0.22 0.23 0.23 0.26 0.24 0.24 0.25 0.24
0.06 0.07 0.07 0.06 0.06 0.05 0.07 0.09 0.10 0.09 0.10 0.09 0.09 0.09 0.10 0.12 0.14 0.16 0.18 0.20 0.23 0.25
0.03 0.05 0.07 0.07 0.07 0.05 0.06 0.06 0.06 0.09 0.13 0.16 0.12 0.09 0.10 0.12 0.12 0.13 0.16 0.19 0.23 0.26
0.04 0.05 0.06 0.07 0.09 0.07 0.06 0.07 0.08 0.06 0.07 0.10 0.14 0.17 0.17 0.15 0.13 0.12 0.14 0.16 0.18 0.18
0.07 0.06 0.05 0.05 0.06 0.08 0.08 0.07 0.05 0.06 0.09 0.12 0.13 0.12 0.11 0.13 0.14 0.16 0.17 0.17 0.21 0.25
0.11 0.08 0.04 0.04 0.06 0.06 0.06 0.11 0.12 0.09 0.07 0.06 0.07 0.13 0.16 0.18 0.19 0.20 0.24 0.28 0.34 0.41
0.08 0.09 0.07 0.08 0.09 0.07 0.06 0.09 0.19 0.27 0.20 0.15 0.13 0.25 0.16 0.09 0.09 0.16 0.23 0.31 0.36 0.42
0.17 0.12 0.23 0.18 0.19 0.22 0.22 0.17 0.21 0.28 0.39 0.42 0.49 0.66 0.56 0.53 0.52 0.49 0.44 0.39 0.33 0.31
0.44 0.38 0.48 0.68 0.58 0.61 0.68 0.85 0.92 0.74 0.76 0.88 0.95 0.88 0.71 0.56 0.48 0.49 0.43 0.33 0.23 0.14
0.75 0.70 0.69 0.80 1.03 1.12 0.86 0.83 0.84 0.74 0.76 0.63 0.54 0.44 0.31 0.24 0.21 0.19 0.14 0.07 0.02 0.01
0.99 0.93 1.10 0.86 0.72 0.87 0.78 0.51 0.50 0.56 0.53 0.40 0.30 0.21 0.14 0.09 0.05 0.02 0.00 0.00 0.00 0.01
0.66 0.62 0.65 0.71 0.57 0.50 0.49 0.46 0.41 0.28 0.17 0.10 0.05 0.02 0.02 0.02 0.01 0.00 0.01 0.00 0.00 0.00

GFSNIL_prec_precacc_102.txt.gz
Total_Precipitation_Accumulation
0.53 0.52 0.41 0.44 0.54 0.57 0.42 0.37 0.36 0.34 0.28 0.31 0.39 0.44 0.43 0.41 0.37 0.36 0.33 0.35 0.34 0.33
0.49 0.51 0.49 0.46 0.38 0.36 0.37 0.31 0.35 0.27 0.18 0.21 0.23 0.25 0.34 0.35 0.41 0.47 0.46 0.45 0.45 0.38
0.21 0.17 0.23 0.26 0.31 0.26 0.28 0.21 0.25 0.26 0.17 0.17 0.21 0.27 0.26 0.24 0.27 0.31 0.31 0.32 0.31 0.27
0.08 0.07 0.08 0.08 0.07 0.07 0.10 0.13 0.15 0.16 0.17 0.17 0.14 0.15 0.13 0.16 0.17 0.20 0.23 0.25 0.26 0.29
0.03 0.05 0.07 0.07 0.07 0.05 0.06 0.06 0.06 0.09 0.13 0.16 0.12 0.11 0.11 0.12 0.12 0.13 0.17 0.22 0.25 0.28
0.04 0.05 0.06 0.07 0.09 0.07 0.06 0.07 0.08 0.06 0.07 0.10 0.14 0.17 0.17 0.15 0.13 0.13 0.15 0.17 0.19 0.19
0.07 0.06 0.05 0.05 0.06 0.08 0.08 0.07 0.05 0.06 0.09 0.12 0.13 0.12 0.11 0.13 0.14 0.16 0.17 0.17 0.21 0.26
0.11 0.08 0.04 0.04 0.06 0.06 0.06 0.11 0.12 0.09 0.07 0.06 0.07 0.13 0.16 0.18 0.19 0.20 0.24 0.28 0.34 0.42
0.08 0.09 0.07 0.08 0.09 0.07 0.06 0.09 0.19 0.27 0.20 0.15 0.13 0.25 0.16 0.09 0.09 0.16 0.23 0.31 0.36 0.42
0.17 0.12 0.23 0.18 0.19 0.22 0.22 0.17 0.21 0.28 0.39 0.42 0.49 0.66 0.56 0.53 0.52 0.49 0.44 0.39 0.33 0.31
0.44 0.38 0.48 0.68 0.58 0.61 0.68 0.85 0.92 0.74 0.76 0.88 0.95 0.88 0.71 0.56 0.48 0.49 0.43 0.33 0.23 0.14
0.75 0.70 0.69 0.80 1.03 1.12 0.86 0.83 0.84 0.74 0.76 0.63 0.54 0.44 0.31 0.24 0.21 0.19 0.14 0.07 0.02 0.01
0.99 0.93 1.10 0.86 0.72 0.87 0.78 0.51 0.50 0.56 0.53 0.40 0.30 0.21 0.14 0.09 0.05 0.02 0.00 0.00 0.00 0.01
0.66 0.62 0.65 0.71 0.57 0.50 0.49 0.46 0.41 0.28 0.17 0.10 0.05 0.02 0.02 0.02 0.01 0.00 0.01 0.00 0.00 0.00

GFSNIL_prec_precacc_105.txt.gz
Total_Precipitation_Accumulation
0.89 0.81 0.72 0.66 0.78 0.79 0.64 0.54 0.54 0.48 0.38 0.42 0.47 0.49 0.49 0.46 0.40 0.39 0.35 0.36 0.35 0.34
1.11 0.90 0.91 0.77 0.63 0.66 0.64 0.53 0.51 0.42 0.27 0.29 0.31 0.31 0.38 0.40 0.45 0.50 0.48 0.47 0.51 0.43
0.69 0.50 0.49 0.46 0.51 0.45 0.47 0.40 0.37 0.34 0.22 0.20 0.23 0.30 0.29 0.27 0.29 0.32 0.33 0.35 0.35 0.32
0.26 0.21 0.19 0.21 0.23 0.18 0.19 0.23 0.23 0.21 0.22 0.20 0.17 0.18 0.16 0.17 0.18 0.21 0.25 0.27 0.28 0.31
0.06 0.06 0.09 0.09 0.09 0.07 0.07 0.06 0.07 0.10 0.14 0.17 0.13 0.12 0.12 0.14 0.14 0.15 0.19 0.23 0.27 0.29
0.04 0.05 0.06 0.07 0.09 0.07 0.06 0.07 0.08 0.06 0.07 0.10 0.14 0.17 0.17 0.15 0.13 0.13 0.15 0.17 0.19 0.19
0.07 0.06 0.05 0.05 0.06 0.08 0.08 0.07 0.05 0.06 0.09 0.12 0.13 0.12 0.11 0.13 0.14 0.16 0.17 0.17 0.21 0.26
0.11 0.08 0.04 0.04 0.06 0.06 0.06 0.11 0.12 0.09 0.07 0.06 0.07 0.13 0.16 0.18 0.19 0.20 0.24 0.28 0.34 0.42
0.08 0.09 0.07 0.08 0.09 0.07 0.06 0.09 0.19 0.27 0.20 0.15 0.13 0.25 0.16 0.09 0.09 0.16 0.23 0.31 0.36 0.42
0.17 0.12 0.23 0.18 0.19 0.22 0.22 0.17 0.21 0.28 0.39 0.42 0.49 0.66 0.56 0.53 0.52 0.49 0.44 0.39 0.33 0.31
0.44 0.38 0.48 0.68 0.58 0.61 0.68 0.85 0.92 0.74 0.76 0.88 0.95 0.88 0.71 0.56 0.48 0.49 0.43 0.33 0.23 0.14
0.75 0.70 0.69 0.80 1.03 1.12 0.86 0.83 0.84 0.74 0.76 0.63 0.54 0.44 0.31 0.24 0.21 0.19 0.14 0.07 0.02 0.01
0.99 0.93 1.10 0.86 0.72 0.87 0.78 0.51 0.50 0.56 0.53 0.40 0.30 0.21 0.14 0.09 0.05 0.02 0.00 0.00 0.00 0.02
0.66 0.62 0.65 0.71 0.57 0.50 0.49 0.46 0.41 0.28 0.17 0.10 0.05 0.02 0.02 0.02 0.02 0.00 0.01 0.01 0.00 0.00

GFSNIL_prec_precacc_108.txt.gz
Total_Precipitation_Accumulation
0.94 0.89 0.75 0.69 0.84 0.90 0.90 0.75 0.67 0.62 0.49 0.55 0.61 0.60 0.58 0.56 0.48 0.47 0.42 0.42 0.40 0.37
1.26 1.15 1.13 0.94 0.77 0.82 0.78 0.71 0.78 0.62 0.43 0.36 0.37 0.36 0.44 0.44 0.47 0.54 0.53 0.53 0.55 0.45
1.05 0.84 0.75 0.75 0.70 0.76 0.70 0.62 0.56 0.51 0.36 0.33 0.32 0.37 0.35 0.31 0.31 0.35 0.35 0.36 0.37 0.33
0.44 0.36 0.32 0.30 0.36 0.31 0.34 0.46 0.44 0.43 0.43 0.35 0.27 0.28 0.27 0.27 0.25 0.28 0.31 0.31 0.31 0.33
0.14 0.12 0.15 0.15 0.19 0.16 0.15 0.15 0.19 0.24 0.32 0.42 0.38 0.29 0.31 0.31 0.23 0.23 0.24 0.28 0.31 0.31
0.04 0.05 0.06 0.08 0.09 0.08 0.06 0.07 0.08 0.07 0.08 0.11 0.16 0.20 0.19 0.16 0.14 0.14 0.16 0.17 0.19 0.20
0.07 0.06 0.05 0.05 0.06 0.08 0.08 0.07 0.05 0.06 0.09 0.12 0.13 0.12 0.11 0.13 0.14 0.16 0.17 0.17 0.21 0.26
0.11 0.08 0.04 0.04 0.06 0.06 0.06 0.11 0.12 0.09 0.07 0.06 0.07 0.13 0.16 0.18 0.19 0.20 0.24 0.28 0.34 0.42
0.08 0.09 0.07 0.08 0.09 0.07 0.06 0.09 0.19 0.27 0.20 0.15 0.13 0.25 0.16 0.09 0.09 0.16 0.23 0.31 0.36 0.42
0.17 0.12 0.23 0.18 0.19 0.22 0.22 0.17 0.21 0.28 0.39 0.42 0.49 0.66 0.56 0.53 0.52 0.49 0.44 0.39 0.33 0.31
0.44 0.38 0.48 0.68 0.58 0.61 0.68 0.85 0.92 0.74 0.76 0.88 0.95 0.88 0.71 0.56 0.48 0.49 0.43 0.33 0.23 0.14
0.75 0.70 0.69 0.80 1.03 1.12 0.86 0.83 0.84 0.74 0.76 0.63 0.54 0.44 0.31 0.24 0.21 0.19 0.14 0.07 0.02 0.01
0.99 0.93 1.10 0.86 0.72 0.87 0.78 0.51 0.50 0.56 0.53 0.40 0.30 0.21 0.14 0.09 0.05 0.02 0.00 0.00 0.00 0.02
0.66 0.62 0.65 0.71 0.57 0.50 0.49 0.46 0.41 0.28 0.17 0.10 0.05 0.02 0.02 0.02 0.02 0.01 0.02 0.02 0.02 0.01

GFSNIL_prec_precacc_111.txt.gz
Total_Precipitation_Accumulation
0.95 0.89 0.75 0.70 0.85 0.91 0.93 0.83 0.77 0.72 0.71 0.76 0.73 0.68 0.65 0.66 0.58 0.55 0.48 0.47 0.45 0.44
1.26 1.16 1.14 0.96 0.80 0.85 0.81 0.74 0.84 0.73 0.57 0.57 0.60 0.60 0.58 0.53 0.60 0.63 0.62 0.61 0.65 0.56
1.10 0.94 0.84 0.91 0.92 0.95 0.95 0.75 0.63 0.60 0.48 0.52 0.52 0.54 0.50 0.45 0.41 0.45 0.42 0.42 0.42 0.39
0.73 0.82 0.65 0.57 0.58 0.47 0.52 0.75 0.66 0.54 0.50 0.46 0.38 0.39 0.40 0.39 0.37 0.39 0.37 0.37 0.36 0.36
0.39 0.32 0.31 0.30 0.29 0.20 0.21 0.24 0.30 0.32 0.38 0.55 0.55 0.46 0.46 0.46 0.44 0.45 0.47 0.48 0.52 0.49
0.06 0.05 0.07 0.12 0.14 0.09 0.08 0.10 0.11 0.09 0.09 0.12 0.20 0.26 0.26 0.23 0.24 0.26 0.29 0.34 0.34 0.28
0.07 0.06 0.05 0.05 0.06 0.08 0.08 0.07 0.05 0.06 0.09 0.12 0.13 0.12 0.11 0.13 0.14 0.16 0.17 0.18 0.21 0.26
0.11 0.08 0.04 0.04 0.06 0.06 0.06 0.11 0.12 0.09 0.07 0.06 0.07 0.13 0.16 0.18 0.19 0.20 0.24 0.28 0.34 0.42
0.08 0.09 0.07 0.08 0.09 0.07 0.06 0.09 0.19 0.27 0.20 0.15 0.13 0.25 0.16 0.09 0.09 0.16 0.23 0.31 0.36 0.42
0.17 0.12 0.23 0.18 0.19 0.22 0.22 0.17 0.21 0.28 0.39 0.42 0.49 0.66 0.56 0.53 0.52 0.49 0.44 0.39 0.33 0.31
0.44 0.38 0.48 0.68 0.58 0.61 0.68 0.85 0.92 0.74 0.76 0.88 0.95 0.88 0.71 0.56 0.48 0.49 0.43 0.33 0.23 0.14
0.75 0.70 0.69 0.80 1.03 1.12 0.86 0.83 0.84 0.74 0.76 0.63 0.54 0.44 0.31 0.24 0.21 0.19 0.14 0.07 0.02 0.01
0.99 0.93 1.10 0.86 0.72 0.87 0.78 0.51 0.50 0.56 0.53 0.40 0.30 0.21 0.14 0.09 0.05 0.02 0.00 0.00 0.00 0.02
0.66 0.62 0.65 0.71 0.57 0.50 0.49 0.46 0.41 0.28 0.17 0.10 0.05 0.02 0.02 0.02 0.02 0.01 0.02 0.02 0.02 0.01

GFSNIL_prec_precacc_114.txt.gz
Total_Precipitation_Accumulation
0.95 0.89 0.76 0.70 0.85 0.92 0.93 0.84 0.77 0.72 0.72 0.76 0.74 0.69 0.65 0.66 0.59 0.56 0.49 0.47 0.45 0.44
1.33 1.20 1.15 0.96 0.80 0.86 0.81 0.74 0.84 0.73 0.58 0.60 0.63 0.67 0.69 0.59 0.62 0.67 0.65 0.63 0.66 0.57
1.12 0.94 0.84 0.91 0.93 0.97 0.99 0.88 0.73 0.65 0.50 0.55 0.63 0.68 0.68 0.67 0.63 0.61 0.49 0.44 0.45 0.43
0.75 0.85 0.66 0.60 0.70 0.67 0.69 1.00 0.94 0.77 0.66 0.51 0.40 0.42 0.45 0.48 0.51 0.56 0.54 0.50 0.47 0.46
0.47 0.61 0.56 0.47 0.55 0.39 0.37 0.41 0.49 0.50 0.50 0.63 0.59 0.49 0.49 0.50 0.51 0.54 0.57 0.60 0.65 0.60
0.15 0.28 0.32 0.28 0.30 0.19 0.12 0.13 0.14 0.12 0.12 0.14 0.21 0.26 0.27 0.26 0.29 0.32 0.36 0.42 0.46 0.44
0.08 0.08 0.08 0.10 0.09 0.11 0.08 0.07 0.05 0.06 0.09 0.13 0.13 0.12 0.11 0.13 0.15 0.17 0.18 0.18 0.23 0.28
0.11 0.08 0.04 0.04 0.06 0.06 0.06 0.11 0.12 0.09 0.07 0.06 0.07 0.13 0.16 0.18 0.19 0.20 0.24 0.28 0.34 0.42
0.08 0.09 0.07 0.08 0.09 0.07 0.06 0.09 0.19 0.27 0.20 0.15 0.13 0.25 0.16 0.09 0.09 0.16 0.23 0.31 0.36 0.42
0.17 0.12 0.23 0.18 0.19 0.22 0.22 0.17 0.21 0.28 0.39 0.42 0.49 0.66 0.56 0.53 0.52 0.49 0.44 0.39 0.33 0.31
0.44 0.38 0.48 0.68 0.58 0.61 0.68 0.85 0.92 0.74 0.76 0.88 0.95 0.88 0.71 0.56 0.48 0.49 0.43 0.33 0.23 0.14
0.75 0.70 0.69 0.80 1.03 1.12 0.86 0.83 0.84 0.74 0.76 0.63 0.54 0.44 0.31 0.24 0.21 0.19 0.14 0.07 0.02 0.01
0.99 0.93 1.10 0.86 0.72 0.87 0.78 0.51 0.50 0.56 0.53 0.40 0.30 0.21 0.14 0.09 0.05 0.02 0.00 0.00 0.00 0.02
0.66 0.62 0.65 0.71 0.57 0.50 0.49 0.46 0.41 0.28 0.17 0.10 0.05 0.02 0.02 0.02 0.02 0.01 0.02 0.02 0.02 0.01

GFSNIL_prec_precacc_117.txt.gz
Total_Precipitation_Accumulation
0.95 0.89 0.76 0.72 0.90 0.99 0.99 0.88 0.78 0.72 0.72 0.76 0.74 0.69 0.66 0.67 0.60 0.57 0.50 0.48 0.47 0.46
1.40 1.26 1.22 1.03 0.85 0.90 0.87 0.77 0.85 0.73 0.58 0.61 0.63 0.68 0.70 0.61 0.63 0.68 0.66 0.65 0.69 0.60
1.18 1.01 0.92 0.96 0.94 0.97 0.99 0.89 0.74 0.66 0.51 0.55 0.63 0.70 0.72 0.72 0.71 0.71 0.61 0.56 0.55 0.48
0.80 0.89 0.69 0.62 0.70 0.68 0.70 1.00 0.95 0.81 0.74 0.56 0.44 0.45 0.48 0.53 0.57 0.66 0.67 0.68 0.65 0.61
0.49 0.62 0.56 0.47 0.55 0.41 0.39 0.43 0.54 0.62 0.66 0.77 0.71 0.58 0.55 0.55 0.53 0.57 0.61 0.66 0.74 0.72
0.16 0.30 0.35 0.31 0.34 0.28 0.19 0.19 0.20 0.19 0.25 0.31 0.32 0.32 0.31 0.28 0.29 0.33 0.37 0.45 0.51 0.49
0.09 0.12 0.15 0.16 0.13 0.19 0.19 0.12 0.08 0.08 0.11 0.14 0.14 0.12 0.12 0.13 0.15 0.17 0.18 0.19 0.24 0.31
0.13 0.09 0.06 0.05 0.06 0.07 0.09 0.16 0.15 0.09 0.07 0.06 0.07 0.13 0.17 0.18 0.19 0.20 0.24 0.28 0.34 0.42
0.08 0.09 0.08 0.08 0.09 0.07 0.06 0.09 0.19 0.27 0.20 0.15 0.13 0.25 0.16 0.09 0.09 0.16 0.23 0.31 0.36 0.42
0.18 0.12 0.24 0.19 0.20 0.22 0.22 0.17 0.21 0.28 0.39 0.42 0.49 0.66 0.56 0.53 0.52 0.49 0.44 0.39 0.33 0.31
0.44 0.38 0.48 0.68 0.58 0.61 0.68 0.85 0.92 0.74 0.76 0.88 0.95 0.88 0.71 0.56 0.48 0.49 0.43 0.33 0.23 0.14
0.75 0.70 0.69 0.80 1.03 1.12 0.86 0.83 0.84 0.74 0.76 0.63 0.54 0.44 0.31 0.24 0.21 0.19 0.14 0.07 0.02 0.01
0.99 0.93 1.10 0.86 0.72 0.87 0.78 0.51 0.50 0.56 0.53 0.40 0.30 0.21 0.14 0.09 0.05 0.02 0.00 0.00 0.00 0.02
0.66 0.62 0.65 0.71 0.57 0.50 0.49 0.46 0.41 0.28 0.17 0.10 0.05 0.02 0.02 0.02 0.02 0.01 0.02 0.02 0.02 0.01

GFSNIL_prec_precacc_123.txt.gz
Total_Precipitation_Accumulation
0.95 0.89 0.76 0.72 0.91 1.03 1.08 1.01 0.97 0.93 0.92 0.97 0.96 0.94 0.90 0.96 0.86 0.72 0.60 0.59 0.57 0.56
1.41 1.27 1.24 1.06 0.89 0.95 0.96 0.91 1.03 0.92 0.79 0.78 0.79 0.87 0.90 0.92 0.99 0.92 0.93 0.79 0.74 0.63
1.19 1.02 0.93 0.97 0.98 1.01 1.03 0.94 0.84 0.82 0.66 0.81 0.92 0.82 0.84 0.85 0.95 1.03 0.79 0.71 0.68 0.58
0.83 0.93 0.73 0.67 0.75 0.72 0.73 1.04 0.99 0.86 0.81 0.64 0.56 0.73 0.70 0.59 0.62 0.71 0.72 0.74 0.74 0.72
0.50 0.63 0.58 0.48 0.56 0.41 0.40 0.46 0.59 0.64 0.67 0.79 0.77 0.64 0.65 0.63 0.57 0.60 0.64 0.70 0.79 0.80
0.21 0.31 0.36 0.32 0.34 0.28 0.19 0.19 0.21 0.19 0.25 0.32 0.36 0.36 0.34 0.30 0.32 0.37 0.42 0.49 0.55 0.55
0.13 0.15 0.17 0.17 0.13 0.19 0.19 0.12 0.09 0.09 0.11 0.15 0.18 0.19 0.17 0.17 0.17 0.18 0.19 0.20 0.26 0.33
0.16 0.17 0.15 0.11 0.08 0.08 0.11 0.21 0.21 0.15 0.11 0.07 0.08 0.15 0.19 0.21 0.25 0.27 0.31 0.34 0.39 0.46
0.09 0.10 0.09 0.12 0.14 0.11 0.10 0.11 0.21 0.33 0.28 0.24 0.23 0.33 0.21 0.13 0.14 0.21 0.28 0.36 0.40 0.44
0.18 0.13 0.25 0.21 0.22 0.25 0.26 0.21 0.24 0.32 0.44 0.46 0.51 0.69 0.59 0.54 0.53 0.51 0.46 0.40 0.33 0.31
0.44 0.38 0.48 0.68 0.58 0.61 0.68 0.85 0.93 0.75 0.77 0.88 0.95 0.88 0.71 0.56 0.48 0.49 0.43 0.33 0.23 0.14
0.75 0.70 0.69 0.80 1.03 1.12 0.86 0.83 0.84 0.74 0.76 0.63 0.54 0.44 0.31 0.24 0.21 0.19 0.14 0.07 0.02 0.01
0.99 0.93 1.10 0.86 0.72 0.87 0.78 0.51 0.50 0.56 0.53 0.40 0.30 0.21 0.14 0.09 0.05 0.02 0.00 0.00 0.00 0.02
0.66 0.62 0.65 0.71 0.57 0.50 0.49 0.46 0.41 0.28 0.17 0.10 0.05 0.02 0.02 0.02 0.02 0.01 0.02 0.02 0.02 0.01

GFSNIL_prec_precacc_126.txt.gz
Total_Precipitation_Accumulation
0.95 0.89 0.76 0.72 0.91 1.03 1.08 1.01 0.97 0.93 0.92 0.97 0.98 0.98 0.97 1.06 1.03 1.07 0.99 0.98 0.97 0.88
1.41 1.27 1.24 1.06 0.89 0.95 0.96 0.91 1.03 0.92 0.79 0.79 0.79 0.90 0.95 0.97 1.05 1.04 1.28 1.51 1.47 1.18
1.19 1.02 0.93 0.98 0.98 1.01 1.03 0.94 0.84 0.82 0.67 0.81 0.94 0.86 0.87 0.88 0.98 1.11 0.98 0.96 1.20 1.23
0.83 0.93 0.74 0.67 0.75 0.72 0.73 1.04 1.00 0.86 0.81 0.66 0.60 0.77 0.74 0.62 0.64 0.75 0.76 0.77 0.77 0.81
0.51 0.64 0.58 0.48 0.56 0.42 0.40 0.46 0.63 0.69 0.71 0.80 0.81 0.70 0.72 0.80 0.70 0.63 0.66 0.72 0.81 0.81
0.22 0.33 0.38 0.34 0.35 0.29 0.19 0.20 0.21 0.21 0.27 0.34 0.37 0.38 0.38 0.34 0.42 0.49 0.50 0.53 0.57 0.57
0.13 0.15 0.19 0.20 0.16 0.21 0.20 0.13 0.09 0.09 0.11 0.15 0.18 0.19 0.17 0.17 0.17 0.18 0.19 0.20 0.26 0.33
0.16 0.17 0.15 0.12 0.10 0.09 0.11 0.22 0.22 0.15 0.11 0.07 0.08 0.15 0.19 0.21 0.25 0.27 0.31 0.34 0.39 0.46
0.09 0.10 0.09 0.12 0.14 0.11 0.10 0.11 0.22 0.33 0.28 0.24 0.23 0.34 0.22 0.13 0.14 0.21 0.28 0.36 0.40 0.45
0.18 0.13 0.25 0.21 0.22 0.25 0.26 0.21 0.24 0.32 0.45 0.46 0.52 0.71 0.61 0.55 0.53 0.51 0.46 0.40 0.34 0.31
0.44 0.38 0.48 0.68 0.58 0.61 0.68 0.85 0.93 0.76 0.77 0.88 0.95 0.88 0.71 0.56 0.48 0.49 0.43 0.33 0.23 0.14
0.75 0.70 0.69 0.80 1.03 1.12 0.86 0.83 0.84 0.74 0.76 0.63 0.54 0.44 0.31 0.24 0.21 0.19 0.14 0.07 0.02 0.01
0.99 0.93 1.10 0.86 0.72 0.87 0.78 0.51 0.50 0.56 0.53 0.40 0.30 0.21 0.14 0.09 0.05 0.02 0.00 0.00 0.00 0.02
0.66 0.62 0.65 0.71 0.57 0.50 0.49 0.46 0.41 0.28 0.17 0.10 0.05 0.02 0.02 0.02 0.02 0.01 0.02 0.02 0.02 0.01

GFSNIL_prec_precacc_129.txt.gz
Total_Precipitation_Accumulation
0.95 0.89 0.76 0.72 0.91 1.03 1.09 1.02 0.97 0.93 0.92 0.97 0.98 0.98 0.97 1.07 1.03 1.09 1.02 1.04 1.11 1.16
1.41 1.27 1.24 1.06 0.89 0.95 0.96 0.91 1.03 0.92 0.79 0.79 0.79 0.90 0.95 0.97 1.06 1.06 1.30 1.53 1.49 1.29
1.19 1.02 0.93 0.98 0.98 1.01 1.03 0.94 0.84 0.82 0.67 0.82 0.95 0.87 0.88 0.90 1.01 1.13 1.00 0.98 1.23 1.35
0.83 0.93 0.74 0.67 0.75 0.72 0.73 1.04 1.00 0.87 0.82 0.67 0.61 0.78 0.76 0.65 0.68 0.78 0.78 0.78 0.79 0.83
0.51 0.64 0.58 0.48 0.56 0.42 0.41 0.47 0.64 0.72 0.73 0.83 0.83 0.71 0.73 0.81 0.73 0.69 0.71 0.74 0.83 0.82
0.22 0.33 0.38 0.34 0.35 0.29 0.19 0.20 0.21 0.21 0.28 0.35 0.38 0.39 0.41 0.39 0.46 0.53 0.56 0.59 0.60 0.57
0.13 0.15 0.19 0.20 0.16 0.21 0.20 0.13 0.09 0.09 0.11 0.15 0.18 0.19 0.17 0.17 0.18 0.20 0.20 0.22 0.28 0.34
0.16 0.17 0.15 0.12 0.10 0.09 0.11 0.22 0.22 0.15 0.11 0.07 0.08 0.15 0.19 0.21 0.25 0.27 0.31 0.34 0.40 0.46
0.09 0.10 0.09 0.12 0.14 0.11 0.10 0.11 0.22 0.33 0.29 0.24 0.23 0.34 0.22 0.13 0.14 0.21 0.28 0.36 0.40 0.45
0.18 0.13 0.25 0.21 0.22 0.25 0.26 0.21 0.24 0.32 0.45 0.46 0.52 0.71 0.61 0.55 0.53 0.51 0.46 0.40 0.34 0.31
0.44 0.38 0.48 0.68 0.58 0.61 0.68 0.85 0.93 0.76 0.77 0.88 0.95 0.88 0.71 0.56 0.48 0.49 0.43 0.33 0.23 0.14
0.75 0.70 0.69 0.80 1.03 1.12 0.86 0.83 0.84 0.74 0.76 0.63 0.54 0.44 0.31 0.24 0.21 0.19 0.14 0.07 0.02 0.01
0.99 0.93 1.10 0.86 0.72 0.87 0.78 0.51 0.50 0.56 0.53 0.40 0.30 0.21 0.15 0.09 0.05 0.02 0.00 0.00 0.00 0.02
0.66 0.62 0.65 0.71 0.57 0.50 0.49 0.46 0.41 0.28 0.17 0.10 0.05 0.02 0.02 0.02 0.02 0.01 0.02 0.02 0.02 0.01

GFSNIL_prec_precacc_132.txt.gz
Total_Precipitation_Accumulation
0.95 0.89 0.77 0.72 0.92 1.03 1.09 1.02 0.97 0.93 0.92 0.97 0.98 0.98 0.97 1.07 1.04 1.10 1.03 1.05 1.12 1.18
1.41 1.27 1.24 1.06 0.89 0.95 0.96 0.91 1.03 0.92 0.79 0.79 0.79 0.90 0.95 0.97 1.06 1.06 1.31 1.54 1.49 1.30
1.19 1.02 0.93 0.98 0.98 1.01 1.03 0.94 0.84 0.82 0.67 0.82 0.95 0.87 0.88 0.90 1.01 1.15 1.01 0.99 1.23 1.36
0.83 0.93 0.74 0.67 0.75 0.72 0.73 1.04 1.00 0.87 0.82 0.67 0.61 0.78 0.76 0.66 0.70 0.80 0.80 0.80 0.81 0.85
0.51 0.64 0.58 0.48 0.56 0.42 0.41 0.47 0.64 0.72 0.73 0.83 0.84 0.72 0.74 0.83 0.76 0.73 0.75 0.79 0.90 0.90
0.22 0.33 0.38 0.34 0.35 0.29 0.19 0.20 0.21 0.21 0.28 0.35 0.38 0.40 0.41 0.40 0.48 0.57 0.60 0.62 0.64 0.61
0.13 0.15 0.19 0.20 0.16 0.21 0.20 0.13 0.09 0.09 0.11 0.15 0.18 0.19 0.17 0.17 0.18 0.21 0.22 0.25 0.31 0.37
0.16 0.17 0.15 0.12 0.10 0.09 0.11 0.22 0.22 0.15 0.11 0.07 0.08 0.15 0.19 0.21 0.25 0.27 0.31 0.34 0.40 0.46
0.09 0.10 0.09 0.12 0.14 0.11 0.10 0.11 0.22 0.33 0.29 0.24 0.23 0.34 0.22 0.13 0.14 0.21 0.28 0.36 0.40 0.45
0.18 0.13 0.25 0.21 0.22 0.25 0.26 0.21 0.24 0.32 0.45 0.46 0.52 0.71 0.61 0.55 0.53 0.51 0.46 0.40 0.34 0.31
0.44 0.38 0.48 0.68 0.58 0.61 0.68 0.85 0.93 0.76 0.77 0.88 0.95 0.88 0.71 0.56 0.48 0.49 0.43 0.33 0.23 0.14
0.75 0.70 0.69 0.80 1.03 1.12 0.86 0.83 0.84 0.74 0.76 0.63 0.54 0.44 0.31 0.24 0.21 0.19 0.14 0.07 0.02 0.01
0.99 0.93 1.10 0.86 0.72 0.87 0.78 0.51 0.50 0.56 0.53 0.40 0.30 0.21 0.15 0.09 0.05 0.02 0.00 0.00 0.00 0.02
0.66 0.62 0.65 0.71 0.57 0.50 0.49 0.46 0.41 0.28 0.17 0.10 0.05 0.02 0.02 0.02 0.02 0.01 0.02 0.02 0.02 0.01

GFSNIL_prec_precacc_135.txt.gz
Total_Precipitation_Accumulation
0.95 0.89 0.77 0.72 0.92 1.03 1.09 1.02 0.97 0.93 0.92 0.97 0.98 0.98 0.97 1.07 1.04 1.10 1.04 1.06 1.13 1.19
1.41 1.27 1.24 1.06 0.89 0.95 0.96 0.91 1.03 0.92 0.79 0.79 0.79 0.90 0.95 0.97 1.06 1.06 1.31 1.54 1.50 1.31
1.19 1.02 0.93 0.98 0.98 1.01 1.03 0.94 0.84 0.82 0.67 0.82 0.95 0.87 0.88 0.90 1.01 1.15 1.02 1.00 1.24 1.37
0.83 0.93 0.74 0.67 0.75 0.72 0.73 1.04 1.00 0.87 0.82 0.67 0.61 0.78 0.76 0.67 0.70 0.81 0.81 0.81 0.82 0.88
0.51 0.64 0.58 0.48 0.56 0.42 0.41 0.47 0.64 0.72 0.73 0.83 0.84 0.72 0.74 0.83 0.76 0.73 0.77 0.82 0.94 0.95
0.22 0.33 0.38 0.34 0.35 0.29 0.19 0.20 0.21 0.21 0.28 0.35 0.38 0.40 0.41 0.40 0.48 0.57 0.60 0.64 0.67 0.64
0.13 0.15 0.19 0.20 0.16 0.21 0.20 0.13 0.09 0.09 0.11 0.15 0.18 0.19 0.17 0.17 0.18 0.21 0.22 0.25 0.31 0.38
0.16 0.17 0.15 0.12 0.10 0.09 0.11 0.22 0.22 0.15 0.11 0.07 0.08 0.15 0.19 0.21 0.25 0.27 0.31 0.34 0.40 0.46
0.09 0.10 0.09 0.12 0.14 0.11 0.10 0.11 0.22 0.33 0.29 0.24 0.23 0.34 0.22 0.13 0.14 0.21 0.28 0.36 0.40 0.45
0.18 0.13 0.25 0.21 0.22 0.25 0.26 0.21 0.24 0.32 0.45 0.46 0.52 0.71 0.61 0.55 0.53 0.51 0.46 0.40 0.34 0.31
0.44 0.38 0.48 0.68 0.58 0.61 0.68 0.85 0.93 0.76 0.77 0.88 0.95 0.88 0.71 0.56 0.48 0.49 0.43 0.33 0.23 0.14
0.75 0.70 0.69 0.80 1.03 1.12 0.86 0.83 0.84 0.74 0.76 0.63 0.54 0.45 0.31 0.24 0.21 0.19 0.14 0.07 0.02 0.01
0.99 0.93 1.10 0.86 0.72 0.87 0.78 0.51 0.50 0.56 0.53 0.40 0.30 0.21 0.15 0.09 0.05 0.02 0.00 0.00 0.00 0.02
0.66 0.62 0.65 0.71 0.57 0.50 0.49 0.46 0.41 0.28 0.17 0.10 0.05 0.02 0.02 0.02 0.02 0.01 0.02 0.02 0.02 0.01

GFSNIL_prec_precacc_141.txt.gz
Total_Precipitation_Accumulation
0.95 0.89 0.77 0.72 0.92 1.03 1.09 1.02 0.97 0.93 0.92 0.97 0.98 0.98 0.97 1.07 1.04 1.10 1.04 1.06 1.14 1.20
1.41 1.27 1.24 1.06 0.89 0.95 0.96 0.91 1.03 0.92 0.79 0.79 0.79 0.90 0.95 0.97 1.06 1.06 1.31 1.54 1.50 1.32
1.19 1.02 0.93 0.98 0.98 1.01 1.03 0.94 0.84 0.82 0.67 0.82 0.95 0.87 0.88 0.90 1.01 1.15 1.02 1.01 1.25 1.38
0.83 0.93 0.74 0.67 0.75 0.72 0.73 1.04 1.00 0.87 0.82 0.67 0.61 0.78 0.76 0.67 0.70 0.81 0.81 0.81 0.82 0.88
0.51 0.64 0.58 0.48 0.56 0.42 0.41 0.47 0.64 0.72 0.73 0.83 0.84 0.72 0.74 0.83 0.76 0.73 0.77 0.82 0.94 0.95
0.22 0.33 0.38 0.34 0.35 0.29 0.19 0.20 0.21 0.21 0.28 0.35 0.38 0.40 0.41 0.40 0.48 0.57 0.60 0.64 0.67 0.64
0.13 0.15 0.19 0.20 0.16 0.21 0.20 0.13 0.09 0.09 0.11 0.15 0.18 0.19 0.17 0.17 0.18 0.21 0.22 0.25 0.31 0.38
0.16 0.17 0.15 0.12 0.10 0.09 0.11 0.22 0.22 0.15 0.11 0.07 0.08 0.15 0.19 0.21 0.25 0.27 0.31 0.34 0.40 0.46
0.09 0.10 0.09 0.12 0.14 0.11 0.10 0.11 0.22 0.33 0.29 0.24 0.23 0.34 0.22 0.13 0.14 0.21 0.28 0.36 0.40 0.45
0.18 0.13 0.25 0.21 0.22 0.25 0.26 0.21 0.24 0.32 0.45 0.46 0.52 0.71 0.61 0.55 0.53 0.51 0.46 0.40 0.34 0.31
0.44 0.38 0.48 0.68 0.58 0.61 0.68 0.85 0.93 0.76 0.77 0.88 0.95 0.88 0.71 0.56 0.48 0.49 0.43 0.33 0.23 0.14
0.75 0.70 0.69 0.80 1.03 1.12 0.86 0.83 0.84 0.74 0.76 0.63 0.54 0.45 0.31 0.24 0.21 0.19 0.14 0.07 0.02 0.01
0.99 0.93 1.10 0.86 0.72 0.87 0.78 0.51 0.50 0.56 0.53 0.40 0.30 0.21 0.15 0.09 0.05 0.02 0.00 0.00 0.00 0.02
0.66 0.62 0.65 0.71 0.57 0.50 0.49 0.46 0.41 0.28 0.17 0.10 0.05 0.02 0.02 0.02 0.02 0.01 0.02 0.02 0.02 0.01

GFSNIL_prec_precacc_144.txt.gz
Total_Precipitation_Accumulation
0.95 0.89 0.77 0.72 0.92 1.03 1.09 1.02 0.97 0.93 0.92 0.97 0.98 0.98 0.97 1.07 1.04 1.10 1.04 1.06 1.14 1.20
1.41 1.27 1.24 1.06 0.89 0.95 0.96 0.91 1.03 0.92 0.79 0.79 0.79 0.90 0.95 0.97 1.06 1.06 1.31 1.55 1.50 1.32
1.19 1.02 0.93 0.98 0.98 1.01 1.03 0.94 0.84 0.82 0.67 0.82 0.95 0.87 0.88 0.90 1.01 1.15 1.02 1.01 1.25 1.38
0.83 0.93 0.74 0.67 0.75 0.72 0.73 1.04 1.00 0.87 0.82 0.67 0.61 0.78 0.76 0.67 0.70 0.81 0.81 0.81 0.82 0.88
0.51 0.64 0.58 0.48 0.56 0.42 0.41 0.47 0.64 0.72 0.73 0.83 0.84 0.72 0.74 0.83 0.76 0.73 0.77 0.82 0.94 0.95
0.22 0.33 0.38 0.34 0.35 0.29 0.19 0.20 0.21 0.21 0.28 0.35 0.38 0.40 0.41 0.40 0.48 0.57 0.60 0.64 0.67 0.64
0.13 0.15 0.19 0.20 0.16 0.21 0.20 0.13 0.09 0.09 0.11 0.15 0.18 0.19 0.17 0.17 0.18 0.21 0.22 0.25 0.31 0.38
0.16 0.17 0.15 0.12 0.10 0.09 0.11 0.22 0.22 0.15 0.11 0.07 0.08 0.15 0.19 0.21 0.25 0.27 0.31 0.34 0.40 0.46
0.09 0.10 0.09 0.12 0.14 0.11 0.10 0.11 0.22 0.33 0.29 0.24 0.23 0.34 0.22 0.13 0.14 0.21 0.28 0.36 0.40 0.45
0.18 0.13 0.25 0.21 0.22 0.25 0.26 0.21 0.24 0.32 0.45 0.46 0.52 0.71 0.61 0.55 0.53 0.51 0.46 0.40 0.34 0.31
0.44 0.38 0.48 0.68 0.58 0.61 0.68 0.85 0.93 0.76 0.77 0.88 0.95 0.88 0.71 0.56 0.48 0.49 0.43 0.33 0.23 0.14
0.75 0.70 0.69 0.80 1.03 1.12 0.86 0.83 0.84 0.74 0.76 0.63 0.54 0.45 0.31 0.24 0.21 0.19 0.14 0.07 0.02 0.01
0.99 0.93 1.10 0.86 0.72 0.87 0.78 0.51 0.50 0.56 0.53 0.40 0.30 0.21 0.15 0.09 0.05 0.02 0.00 0.00 0.00 0.02
0.66 0.62 0.65 0.71 0.57 0.50 0.49 0.46 0.41 0.28 0.17 0.10 0.05 0.02 0.02 0.02 0.02 0.01 0.02 0.02 0.02 0.01

GFSNIL_prec_precacc_147.txt.gz
Total_Precipitation_Accumulation
0.95 0.89 0.77 0.72 0.92 1.03 1.09 1.02 0.97 0.93 0.92 0.97 0.98 0.98 0.97 1.07 1.04 1.10 1.04 1.06 1.14 1.20
1.41 1.27 1.24 1.06 0.89 0.95 0.96 0.91 1.03 0.92 0.79 0.79 0.79 0.90 0.95 0.97 1.06 1.06 1.31 1.55 1.50 1.32
1.19 1.02 0.93 0.98 0.98 1.01 1.03 0.94 0.84 0.82 0.67 0.82 0.95 0.87 0.88 0.90 1.01 1.15 1.02 1.01 1.25 1.38
0.83 0.93 0.74 0.67 0.75 0.72 0.73 1.04 1.00 0.87 0.82 0.67 0.61 0.78 0.76 0.67 0.70 0.81 0.81 0.81 0.82 0.88
0.51 0.64 0.58 0.48 0.56 0.42 0.41 0.47 0.64 0.72 0.73 0.83 0.84 0.72 0.74 0.83 0.76 0.73 0.77 0.82 0.94 0.95
0.22 0.33 0.38 0.34 0.35 0.29 0.19 0.20 0.21 0.21 0.28 0.35 0.38 0.40 0.41 0.40 0.48 0.57 0.60 0.64 0.67 0.64
0.13 0.15 0.19 0.20 0.16 0.21 0.20 0.13 0.09 0.09 0.11 0.15 0.18 0.19 0.17 0.17 0.18 0.21 0.22 0.25 0.31 0.38
0.16 0.17 0.15 0.12 0.10 0.09 0.11 0.22 0.22 0.15 0.11 0.07 0.08 0.15 0.19 0.21 0.25 0.27 0.31 0.34 0.40 0.46
0.09 0.10 0.09 0.12 0.14 0.11 0.10 0.11 0.22 0.33 0.29 0.24 0.23 0.34 0.22 0.13 0.14 0.21 0.28 0.36 0.40 0.45
0.18 0.13 0.25 0.21 0.22 0.25 0.26 0.21 0.24 0.32 0.45 0.46 0.52 0.71 0.61 0.55 0.53 0.51 0.46 0.40 0.34 0.31
0.44 0.38 0.48 0.68 0.58 0.61 0.68 0.85 0.93 0.76 0.77 0.88 0.95 0.88 0.71 0.56 0.48 0.49 0.43 0.33 0.23 0.14
0.75 0.70 0.69 0.80 1.03 1.12 0.86 0.83 0.84 0.74 0.76 0.63 0.54 0.45 0.31 0.24 0.21 0.19 0.14 0.07 0.02 0.01
0.99 0.93 1.10 0.86 0.72 0.87 0.78 0.51 0.50 0.57 0.53 0.40 0.30 0.21 0.15 0.09 0.05 0.02 0.00 0.00 0.00 0.02
0.66 0.62 0.65 0.71 0.57 0.50 0.49 0.46 0.41 0.28 0.18 0.10 0.05 0.02 0.02 0.02 0.02 0.01 0.02 0.02 0.02 0.01

GFSNIL_prec_precacc_150.txt.gz
Total_Precipitation_Accumulation
0.95 0.89 0.77 0.72 0.92 1.03 1.09 1.02 0.97 0.93 0.92 0.97 0.98 0.98 0.97 1.07 1.04 1.10 1.04 1.06 1.14 1.20
1.41 1.27 1.24 1.06 0.89 0.95 0.96 0.91 1.03 0.92 0.79 0.79 0.79 0.90 0.95 0.97 1.06 1.06 1.31 1.55 1.50 1.32
1.19 1.02 0.93 0.98 0.98 1.01 1.03 0.94 0.84 0.82 0.67 0.82 0.95 0.87 0.88 0.90 1.01 1.15 1.02 1.01 1.25 1.38
0.83 0.93 0.74 0.67 0.75 0.72 0.73 1.04 1.00 0.87 0.82 0.67 0.61 0.78 0.76 0.67 0.70 0.81 0.81 0.81 0.82 0.88
0.51 0.64 0.58 0.48 0.56 0.42 0.41 0.47 0.64 0.72 0.73 0.83 0.84 0.72 0.74 0.83 0.76 0.73 0.77 0.82 0.94 0.95
0.22 0.33 0.38 0.34 0.35 0.29 0.19 0.20 0.21 0.21 0.28 0.35 0.38 0.40 0.41 0.40 0.48 0.57 0.60 0.64 0.67 0.64
0.13 0.15 0.19 0.20 0.16 0.21 0.20 0.13 0.09 0.09 0.11 0.15 0.18 0.19 0.17 0.17 0.18 0.21 0.22 0.25 0.31 0.38
0.16 0.17 0.15 0.12 0.10 0.09 0.11 0.22 0.22 0.15 0.11 0.07 0.08 0.15 0.19 0.21 0.25 0.27 0.31 0.34 0.40 0.46
0.09 0.10 0.09 0.12 0.14 0.11 0.10 0.11 0.22 0.33 0.29 0.24 0.23 0.34 0.22 0.13 0.14 0.21 0.28 0.36 0.40 0.45
0.18 0.13 0.25 0.21 0.22 0.25 0.26 0.21 0.24 0.32 0.45 0.46 0.52 0.71 0.61 0.55 0.53 0.51 0.46 0.40 0.34 0.31
0.44 0.38 0.48 0.68 0.58 0.61 0.68 0.85 0.93 0.76 0.77 0.88 0.95 0.88 0.71 0.56 0.48 0.49 0.43 0.33 0.23 0.14
0.75 0.70 0.69 0.80 1.03 1.12 0.86 0.83 0.84 0.74 0.76 0.63 0.54 0.45 0.31 0.24 0.21 0.19 0.14 0.07 0.02 0.01
0.99 0.93 1.10 0.86 0.72 0.87 0.78 0.51 0.50 0.57 0.53 0.40 0.30 0.22 0.16 0.12 0.07 0.02 0.00 0.00 0.00 0.02
0.66 0.62 0.65 0.71 0.57 0.50 0.49 0.46 0.41 0.28 0.18 0.10 0.06 0.04 0.05 0.05 0.03 0.01 0.02 0.02 0.02 0.01